| time (UTC) | temp F | wind direction | speed MPH | gust MPH | rain 1hr in | rain 24hr in | rain mn in | humidity % | barometer mb |
| 20260507105603 | 67 | 212 | 7.0 | 13.0 | 0.00 | 0.00 | 0.00 | 69 | 1014.9 |
| 20260507105503 | 67 | 212 | 7.0 | 13.0 | 0.00 | 0.00 | 0.00 | 69 | 1014.8 |
| 20260507105403 | 67 | 213 | 7.0 | 13.0 | 0.00 | 0.00 | 0.00 | 69 | 1014.8 |
| 20260507105306 | 67 | 213 | 8.0 | 12.0 | 0.00 | 0.00 | 0.00 | 69 | 1014.9 |
| 20260507105203 | 67 | 212 | 8.0 | 17.0 | 0.00 | 0.00 | 0.00 | 69 | 1014.9 |
| 20260507105103 | 67 | 213 | 8.0 | 17.0 | 0.00 | 0.00 | 0.00 | 69 | 1014.9 |
| 20260507105003 | 67 | 214 | 8.0 | 17.0 | 0.00 | 0.00 | 0.00 | 70 | 1014.8 |
| 20260507104903 | 67 | 213 | 8.0 | 17.0 | 0.00 | 0.00 | 0.00 | 69 | 1014.8 |
| 20260507104803 | 67 | 212 | 8.0 | 17.0 | 0.00 | 0.00 | 0.00 | 69 | 1014.8 |
| 20260507104703 | 67 | 212 | 8.0 | 17.0 | 0.00 | 0.00 | 0.00 | 69 | 1014.9 |
| 20260507104603 | 67 | 212 | 8.0 | 17.0 | 0.00 | 0.00 | 0.00 | 69 | 1014.9 |
| 20260507104504 | 67 | 212 | 8.0 | 17.0 | 0.00 | 0.00 | 0.00 | 69 | 1014.9 |
| 20260507104403 | 67 | 211 | 8.0 | 17.0 | 0.00 | 0.00 | 0.00 | 68 | 1014.8 |
| 20260507104303 | 67 | 211 | 8.0 | 17.0 | 0.00 | 0.00 | 0.00 | 68 | 1014.8 |
| 20260507104204 | 67 | 212 | 7.0 | 15.0 | 0.00 | 0.00 | 0.00 | 68 | 1014.9 |
| 20260507104104 | 67 | 212 | 7.0 | 15.0 | 0.00 | 0.00 | 0.00 | 69 | 1014.9 |
| 20260507104003 | 67 | 214 | 7.0 | 15.0 | 0.00 | 0.00 | 0.00 | 69 | 1014.9 |
| 20260507103903 | 67 | 213 | 7.0 | 15.0 | 0.00 | 0.00 | 0.00 | 70 | 1015.0 |
| 20260507103803 | 67 | 214 | 7.0 | 15.0 | 0.00 | 0.00 | 0.00 | 69 | 1014.9 |
| 20260507103703 | 67 | 214 | 7.0 | 15.0 | 0.00 | 0.00 | 0.00 | 69 | 1015.0 |
| 20260507103604 | 67 | 213 | 7.0 | 15.0 | 0.00 | 0.00 | 0.00 | 70 | 1015.0 |
| 20260507103503 | 67 | 213 | 7.0 | 15.0 | 0.00 | 0.00 | 0.00 | 70 | 1015.0 |
| 20260507103403 | 67 | 215 | 7.0 | 15.0 | 0.00 | 0.00 | 0.00 | 69 | 1015.0 |
| 20260507103303 | 67 | 213 | 7.0 | 15.0 | 0.00 | 0.00 | 0.00 | 71 | 1014.9 |
| 20260507103203 | 67 | 212 | 7.0 | 15.0 | 0.00 | 0.00 | 0.00 | 71 | 1014.9 |
| 20260507103103 | 67 | 212 | 7.0 | 15.0 | 0.00 | 0.00 | 0.00 | 71 | 1014.9 |
| 20260507103003 | 67 | 211 | 7.0 | 14.0 | 0.00 | 0.00 | 0.00 | 72 | 1015.0 |
| 20260507102903 | 67 | 210 | 7.0 | 14.0 | 0.00 | 0.00 | 0.00 | 71 | 1015.0 |
| 20260507102804 | 67 | 211 | 7.0 | 14.0 | 0.00 | 0.00 | 0.00 | 71 | 1015.0 |
| 20260507102703 | 67 | 209 | 6.0 | 14.0 | 0.00 | 0.00 | 0.00 | 71 | 1015.1 |
| 20260507102603 | 67 | 212 | 6.0 | 14.0 | 0.00 | 0.00 | 0.00 | 72 | 1015.1 |
| 20260507102503 | 67 | 212 | 6.0 | 14.0 | 0.00 | 0.00 | 0.00 | 72 | 1015.0 |
| 20260507102403 | 67 | 211 | 6.0 | 14.0 | 0.00 | 0.00 | 0.00 | 71 | 1015.0 |
| 20260507102306 | 67 | 213 | 5.0 | 14.0 | 0.00 | 0.00 | 0.00 | 71 | 1015.0 |
| 20260507102203 | 67 | 213 | 5.0 | 14.0 | 0.00 | 0.00 | 0.00 | 71 | 1015.1 |
| 20260507102103 | 67 | 211 | 5.0 | 14.0 | 0.00 | 0.00 | 0.00 | 71 | 1015.1 |
| 20260507102003 | 67 | 209 | 5.0 | 14.0 | 0.00 | 0.00 | 0.00 | 71 | 1015.1 |
| 20260507101903 | 67 | 211 | 5.0 | 14.0 | 0.00 | 0.00 | 0.00 | 71 | 1015.1 |
| 20260507101803 | 67 | 210 | 6.0 | 14.0 | 0.00 | 0.00 | 0.00 | 70 | 1015.1 |
| 20260507101703 | 67 | 214 | 6.0 | 13.0 | 0.00 | 0.00 | 0.00 | 70 | 1015.1 |
| 20260507101603 | 67 | 212 | 6.0 | 13.0 | 0.00 | 0.00 | 0.00 | 70 | 1015.1 |
| 20260507101503 | 67 | 212 | 7.0 | 13.0 | 0.00 | 0.00 | 0.00 | 70 | 1015.1 |
| 20260507101403 | 67 | 212 | 7.0 | 13.0 | 0.00 | 0.00 | 0.00 | 70 | 1015.2 |
| 20260507101303 | 67 | 211 | 7.0 | 14.0 | 0.00 | 0.00 | 0.00 | 71 | 1015.2 |
| 20260507101203 | 67 | 212 | 7.0 | 14.0 | 0.00 | 0.00 | 0.00 | 71 | 1015.1 |
| 20260507101103 | 67 | 212 | 8.0 | 14.0 | 0.00 | 0.00 | 0.00 | 72 | 1015.2 |
| 20260507101003 | 67 | 215 | 8.0 | 14.0 | 0.00 | 0.00 | 0.00 | 71 | 1015.2 |
| 20260507100903 | 67 | 215 | 8.0 | 14.0 | 0.00 | 0.00 | 0.00 | 71 | 1015.1 |
| 20260507100803 | 67 | 213 | 8.0 | 14.0 | 0.00 | 0.00 | 0.00 | 70 | 1015.1 |
| 20260507100703 | 67 | 213 | 8.0 | 14.0 | 0.00 | 0.00 | 0.00 | 71 | 1015.1 |
| 20260507100603 | 67 | 213 | 8.0 | 14.0 | 0.00 | 0.00 | 0.00 | 71 | 1015.1 |
| 20260507100503 | 67 | 213 | 7.0 | 14.0 | 0.00 | 0.00 | 0.00 | 71 | 1015.1 |
| 20260507100403 | 67 | 215 | 7.0 | 14.0 | 0.00 | 0.00 | 0.00 | 71 | 1015.1 |
| 20260507100303 | 67 | 216 | 7.0 | 14.0 | 0.00 | 0.00 | 0.00 | 71 | 1015.1 |
| 20260507100203 | 67 | 216 | 7.0 | 14.0 | 0.00 | 0.00 | 0.00 | 71 | 1015.1 |
| 20260507100103 | 67 | 216 | 7.0 | 15.0 | 0.00 | 0.00 | 0.00 | 71 | 1015.1 |
| 20260507100003 | 67 | 216 | 6.0 | 15.0 | 0.00 | 0.00 | 0.00 | 71 | 1015.1 |
| 20260507095903 | 67 | 215 | 6.0 | 15.0 | 0.00 | 0.00 | 0.00 | 71 | 1015.1 |
| 20260507095803 | 67 | 216 | 6.0 | 15.0 | 0.00 | 0.00 | 0.00 | 71 | 1015.1 |
| 20260507095703 | 67 | 217 | 6.0 | 15.0 | 0.00 | 0.00 | 0.00 | 71 | 1015.1 |
| 20260507095603 | 67 | 217 | 6.0 | 15.0 | 0.00 | 0.00 | 0.00 | 70 | 1015.1 |
| 20260507095503 | 67 | 215 | 6.0 | 15.0 | 0.00 | 0.00 | 0.00 | 71 | 1015.1 |
| 20260507095403 | 67 | 215 | 7.0 | 15.0 | 0.00 | 0.00 | 0.00 | 71 | 1015.1 |
| 20260507095305 | 67 | 213 | 7.0 | 15.0 | 0.00 | 0.00 | 0.00 | 71 | 1015.1 |
| 20260507095203 | 67 | 214 | 7.0 | 15.0 | 0.00 | 0.00 | 0.00 | 71 | 1015.1 |
| 20260507095103 | 67 | 215 | 7.0 | 14.0 | 0.00 | 0.00 | 0.00 | 70 | 1015.1 |
| 20260507095003 | 67 | 215 | 7.0 | 14.0 | 0.00 | 0.00 | 0.00 | 70 | 1015.1 |
| 20260507094903 | 67 | 216 | 7.0 | 15.0 | 0.00 | 0.00 | 0.00 | 70 | 1015.2 |
| 20260507094803 | 67 | 216 | 7.0 | 15.0 | 0.00 | 0.00 | 0.00 | 71 | 1015.1 |
| 20260507094703 | 67 | 217 | 7.0 | 15.0 | 0.00 | 0.00 | 0.00 | 72 | 1015.2 |
| 20260507094603 | 66 | 216 | 7.0 | 15.0 | 0.00 | 0.00 | 0.00 | 72 | 1015.2 |
| 20260507094503 | 66 | 217 | 7.0 | 15.0 | 0.00 | 0.00 | 0.00 | 71 | 1015.2 |
| 20260507094403 | 66 | 216 | 7.0 | 15.0 | 0.00 | 0.00 | 0.00 | 71 | 1015.2 |
| 20260507094303 | 66 | 217 | 8.0 | 15.0 | 0.00 | 0.00 | 0.00 | 72 | 1015.1 |
| 20260507094203 | 66 | 216 | 8.0 | 15.0 | 0.00 | 0.00 | 0.00 | 71 | 1015.1 |
| 20260507094103 | 66 | 216 | 8.0 | 15.0 | 0.00 | 0.00 | 0.00 | 71 | 1015.1 |
| 20260507094003 | 66 | 215 | 8.0 | 15.0 | 0.00 | 0.00 | 0.00 | 71 | 1015.1 |
| 20260507093903 | 66 | 213 | 8.0 | 14.0 | 0.00 | 0.00 | 0.00 | 72 | 1015.1 |
| 20260507093803 | 66 | 214 | 8.0 | 17.0 | 0.00 | 0.00 | 0.00 | 71 | 1015.1 |
| 20260507093703 | 66 | 213 | 8.0 | 17.0 | 0.00 | 0.00 | 0.00 | 71 | 1015.1 |
| 20260507093603 | 66 | 214 | 8.0 | 17.0 | 0.00 | 0.00 | 0.00 | 72 | 1015.1 |
| 20260507093503 | 66 | 213 | 8.0 | 17.0 | 0.00 | 0.00 | 0.00 | 71 | 1015.1 |
| 20260507093403 | 66 | 213 | 7.0 | 17.0 | 0.00 | 0.00 | 0.00 | 71 | 1015.2 |
| 20260507093304 | 66 | 212 | 7.0 | 17.0 | 0.00 | 0.00 | 0.00 | 71 | 1015.2 |
| 20260507093203 | 66 | 212 | 7.0 | 17.0 | 0.00 | 0.00 | 0.00 | 70 | 1015.1 |
| 20260507093103 | 66 | 212 | 7.0 | 17.0 | 0.00 | 0.00 | 0.00 | 70 | 1015.2 |
| 20260507093003 | 66 | 213 | 7.0 | 17.0 | 0.00 | 0.00 | 0.00 | 70 | 1015.1 |
| 20260507092903 | 66 | 214 | 7.0 | 17.0 | 0.00 | 0.00 | 0.00 | 71 | 1015.1 |
| 20260507092803 | 66 | 215 | 7.0 | 16.0 | 0.00 | 0.00 | 0.00 | 71 | 1015.1 |
| 20260507092703 | 66 | 215 | 7.0 | 16.0 | 0.00 | 0.00 | 0.00 | 71 | 1015.1 |
| 20260507092603 | 66 | 215 | 7.0 | 16.0 | 0.00 | 0.00 | 0.00 | 71 | 1015.1 |
| 20260507092504 | 66 | 214 | 6.0 | 16.0 | 0.00 | 0.00 | 0.00 | 71 | 1015.1 |
| 20260507092403 | 66 | 213 | 7.0 | 16.0 | 0.00 | 0.00 | 0.00 | 70 | 1015.0 |
| 20260507092306 | 66 | 214 | 7.0 | 14.0 | 0.00 | 0.00 | 0.00 | 70 | 1015.1 |
| 20260507092204 | 66 | 216 | 7.0 | 14.0 | 0.00 | 0.00 | 0.00 | 70 | 1015.1 |
| 20260507092103 | 66 | 216 | 7.0 | 14.0 | 0.00 | 0.00 | 0.00 | 70 | 1015.1 |
| 20260507092003 | 66 | 217 | 7.0 | 14.0 | 0.00 | 0.00 | 0.00 | 71 | 1015.0 |
| 20260507091903 | 66 | 217 | 7.0 | 14.0 | 0.00 | 0.00 | 0.00 | 72 | 1015.0 |
| 20260507091803 | 66 | 216 | 7.0 | 14.0 | 0.00 | 0.00 | 0.00 | 72 | 1015.0 |
| 20260507091703 | 66 | 217 | 7.0 | 14.0 | 0.00 | 0.00 | 0.00 | 71 | 1015.0 |
| 20260507091603 | 66 | 216 | 7.0 | 14.0 | 0.00 | 0.00 | 0.00 | 71 | 1015.1 |
| 20260507091503 | 66 | 217 | 7.0 | 14.0 | 0.00 | 0.00 | 0.00 | 71 | 1015.1 |
| 20260507091403 | 66 | 218 | 7.0 | 14.0 | 0.00 | 0.00 | 0.00 | 70 | 1015.0 |
| 20260507091303 | 66 | 218 | 7.0 | 14.0 | 0.00 | 0.00 | 0.00 | 70 | 1015.0 |
| 20260507091203 | 66 | 217 | 7.0 | 14.0 | 0.00 | 0.00 | 0.00 | 70 | 1015.1 |
| 20260507091103 | 66 | 217 | 7.0 | 14.0 | 0.00 | 0.00 | 0.00 | 70 | 1015.0 |
| 20260507091003 | 66 | 215 | 7.0 | 14.0 | 0.00 | 0.00 | 0.00 | 70 | 1015.0 |
| 20260507090903 | 66 | 216 | 7.0 | 14.0 | 0.00 | 0.00 | 0.00 | 71 | 1015.0 |
| 20260507090803 | 66 | 218 | 7.0 | 15.0 | 0.00 | 0.00 | 0.00 | 70 | 1015.0 |
| 20260507090703 | 66 | 218 | 7.0 | 15.0 | 0.00 | 0.00 | 0.00 | 69 | 1015.0 |
| 20260507090603 | 66 | 219 | 7.0 | 15.0 | 0.00 | 0.00 | 0.00 | 69 | 1015.0 |
| 20260507090503 | 66 | 219 | 7.0 | 15.0 | 0.00 | 0.00 | 0.00 | 69 | 1014.9 |
| 20260507090404 | 66 | 218 | 7.0 | 15.0 | 0.00 | 0.00 | 0.00 | 69 | 1015.0 |
| 20260507090303 | 66 | 219 | 7.0 | 15.0 | 0.00 | 0.00 | 0.00 | 70 | 1014.9 |
| 20260507090203 | 66 | 220 | 7.0 | 15.0 | 0.00 | 0.00 | 0.00 | 70 | 1014.9 |
| 20260507090103 | 66 | 220 | 7.0 | 15.0 | 0.00 | 0.00 | 0.00 | 71 | 1014.9 |
| 20260507090004 | 66 | 220 | 7.0 | 15.0 | 0.00 | 0.00 | 0.00 | 71 | 1014.9 |
| 20260507085903 | 66 | 219 | 6.0 | 15.0 | 0.00 | 0.00 | 0.00 | 71 | 1014.9 |
| 20260507085803 | 66 | 216 | 6.0 | 15.0 | 0.00 | 0.00 | 0.00 | 71 | 1014.9 |
| 20260507085703 | 66 | 216 | 6.0 | 15.0 | 0.00 | 0.00 | 0.00 | 70 | 1014.9 |
| 20260507085604 | 66 | 216 | 6.0 | 15.0 | 0.00 | 0.00 | 0.00 | 71 | 1014.9 |
| 20260507085503 | 66 | 215 | 6.0 | 15.0 | 0.00 | 0.00 | 0.00 | 71 | 1014.9 |
| 20260507085403 | 66 | 216 | 5.0 | 15.0 | 0.00 | 0.00 | 0.00 | 70 | 1014.9 |
| 20260507085306 | 66 | 212 | 5.0 | 15.0 | 0.00 | 0.00 | 0.00 | 70 | 1014.9 |
| 20260507085203 | 66 | 210 | 5.0 | 15.0 | 0.00 | 0.00 | 0.00 | 70 | 1014.9 |
| 20260507085103 | 66 | 208 | 5.0 | 15.0 | 0.00 | 0.00 | 0.00 | 70 | 1014.9 |
| 20260507085003 | 66 | 204 | 5.0 | 15.0 | 0.00 | 0.00 | 0.00 | 69 | 1014.9 |
| 20260507084903 | 66 | 203 | 5.0 | 15.0 | 0.00 | 0.00 | 0.00 | 70 | 1014.9 |
| 20260507084803 | 66 | 203 | 6.0 | 13.0 | 0.00 | 0.00 | 0.00 | 70 | 1014.9 |
| 20260507084703 | 66 | 203 | 6.0 | 13.0 | 0.00 | 0.00 | 0.00 | 69 | 1014.9 |
| 20260507084603 | 66 | 204 | 6.0 | 13.0 | 0.00 | 0.00 | 0.00 | 69 | 1014.9 |
| 20260507084503 | 66 | 204 | 6.0 | 14.0 | 0.00 | 0.00 | 0.00 | 69 | 1014.9 |
| 20260507084403 | 66 | 208 | 6.0 | 14.0 | 0.00 | 0.00 | 0.00 | 69 | 1014.9 |
| 20260507084303 | 66 | 211 | 7.0 | 14.0 | 0.00 | 0.00 | 0.00 | 70 | 1014.9 |
| 20260507084203 | 66 | 212 | 7.0 | 14.0 | 0.00 | 0.00 | 0.00 | 71 | 1014.9 |
| 20260507084103 | 66 | 212 | 7.0 | 14.0 | 0.00 | 0.00 | 0.00 | 70 | 1014.9 |
| 20260507084004 | 66 | 214 | 7.0 | 16.0 | 0.00 | 0.00 | 0.00 | 70 | 1014.8 |
| 20260507083903 | 66 | 216 | 7.0 | 16.0 | 0.00 | 0.00 | 0.00 | 70 | 1014.8 |
| 20260507083803 | 66 | 216 | 7.0 | 16.0 | 0.00 | 0.00 | 0.00 | 70 | 1014.8 |
| 20260507083703 | 65 | 216 | 7.0 | 16.0 | 0.00 | 0.00 | 0.00 | 70 | 1014.8 |
| 20260507083603 | 66 | 215 | 6.0 | 16.0 | 0.00 | 0.00 | 0.00 | 70 | 1014.8 |
| 20260507083503 | 66 | 216 | 6.0 | 16.0 | 0.00 | 0.00 | 0.00 | 70 | 1014.7 |
| 20260507083403 | 65 | 215 | 6.0 | 16.0 | 0.00 | 0.00 | 0.00 | 70 | 1014.7 |
| 20260507083303 | 65 | 215 | 6.0 | 16.0 | 0.00 | 0.00 | 0.00 | 70 | 1014.7 |
| 20260507083203 | 65 | 215 | 5.0 | 16.0 | 0.00 | 0.00 | 0.00 | 69 | 1014.8 |
| 20260507083103 | 65 | 215 | 5.0 | 16.0 | 0.00 | 0.00 | 0.00 | 69 | 1014.7 |
| 20260507083004 | 65 | 215 | 5.0 | 13.0 | 0.00 | 0.00 | 0.00 | 70 | 1014.7 |
| 20260507082903 | 65 | 214 | 4.0 | 13.0 | 0.00 | 0.00 | 0.00 | 70 | 1014.7 |
| 20260507082803 | 65 | 214 | 4.0 | 12.0 | 0.00 | 0.00 | 0.00 | 70 | 1014.7 |
| 20260507082703 | 65 | 214 | 4.0 | 12.0 | 0.00 | 0.00 | 0.00 | 70 | 1014.7 |
| 20260507082603 | 65 | 214 | 4.0 | 12.0 | 0.00 | 0.00 | 0.00 | 70 | 1014.7 |
| 20260507082503 | 65 | 212 | 4.0 | 12.0 | 0.00 | 0.00 | 0.00 | 70 | 1014.6 |
| 20260507082403 | 65 | 208 | 5.0 | 12.0 | 0.00 | 0.00 | 0.00 | 70 | 1014.7 |
| 20260507082306 | 65 | 209 | 5.0 | 12.0 | 0.00 | 0.00 | 0.00 | 70 | 1014.7 |
| 20260507082203 | 65 | 207 | 5.0 | 12.0 | 0.00 | 0.00 | 0.00 | 70 | 1014.7 |
| 20260507082103 | 65 | 205 | 5.0 | 11.0 | 0.00 | 0.00 | 0.00 | 70 | 1014.7 |
| 20260507082003 | 65 | 203 | 5.0 | 11.0 | 0.00 | 0.00 | 0.00 | 71 | 1014.7 |
| 20260507081903 | 65 | 204 | 6.0 | 11.0 | 0.00 | 0.01 | 0.00 | 70 | 1014.7 |
| 20260507081803 | 65 | 206 | 6.0 | 15.0 | 0.00 | 0.01 | 0.00 | 70 | 1014.7 |
| 20260507081703 | 65 | 208 | 6.0 | 15.0 | 0.00 | 0.01 | 0.00 | 70 | 1014.7 |
| 20260507081603 | 65 | 209 | 5.0 | 15.0 | 0.00 | 0.01 | 0.00 | 70 | 1014.7 |
| 20260507081503 | 65 | 210 | 5.0 | 15.0 | 0.00 | 0.01 | 0.00 | 70 | 1014.7 |
| 20260507081403 | 65 | 210 | 5.0 | 15.0 | 0.00 | 0.01 | 0.00 | 71 | 1014.7 |
| 20260507081303 | 65 | 211 | 5.0 | 15.0 | 0.00 | 0.01 | 0.00 | 71 | 1014.7 |
| 20260507081203 | 65 | 211 | 4.0 | 15.0 | 0.00 | 0.01 | 0.00 | 71 | 1014.7 |
| 20260507081103 | 65 | 213 | 4.0 | 15.0 | 0.00 | 0.01 | 0.00 | 71 | 1014.7 |
| 20260507081003 | 65 | 214 | 4.0 | 15.0 | 0.00 | 0.01 | 0.00 | 72 | 1014.7 |
| 20260507080903 | 65 | 212 | 3.0 | 15.0 | 0.00 | 0.01 | 0.00 | 71 | 1014.6 |
| 20260507080803 | 65 | 211 | 3.0 | 14.0 | 0.00 | 0.01 | 0.00 | 72 | 1014.6 |
| 20260507080703 | 65 | 210 | 3.0 | 13.0 | 0.00 | 0.01 | 0.00 | 71 | 1014.6 |
| 20260507080603 | 65 | 210 | 3.0 | 13.0 | 0.00 | 0.01 | 0.00 | 70 | 1014.6 |
| 20260507080503 | 65 | 210 | 2.0 | 13.0 | 0.00 | 0.01 | 0.00 | 71 | 1014.5 |
| 20260507080403 | 65 | 210 | 2.0 | 12.0 | 0.00 | 0.01 | 0.00 | 71 | 1014.6 |
| 20260507080303 | 65 | 210 | 2.0 | 12.0 | 0.00 | 0.01 | 0.00 | 71 | 1014.6 |
| 20260507080203 | 65 | 210 | 2.0 | 12.0 | 0.00 | 0.01 | 0.00 | 71 | 1014.6 |
| 20260507080103 | 65 | 209 | 2.0 | 12.0 | 0.00 | 0.01 | 0.00 | 71 | 1014.6 |
| 20260507080003 | 65 | 209 | 2.0 | 12.0 | 0.00 | 0.01 | 0.00 | 72 | 1014.5 |
| 20260507075903 | 64 | 211 | 2.0 | 10.0 | 0.00 | 0.01 | 0.00 | 72 | 1014.5 |
| 20260507075803 | 64 | 209 | 2.0 | 10.0 | 0.00 | 0.01 | 0.00 | 72 | 1014.5 |
| 20260507075703 | 64 | 209 | 2.0 | 10.0 | 0.00 | 0.01 | 0.00 | 72 | 1014.5 |
| 20260507075603 | 64 | 208 | 2.0 | 10.0 | 0.00 | 0.01 | 0.00 | 72 | 1014.5 |
| 20260507075503 | 64 | 208 | 2.0 | 10.0 | 0.00 | 0.01 | 0.00 | 72 | 1014.4 |
| 20260507075403 | 64 | 207 | 2.0 | 10.0 | 0.00 | 0.01 | 0.00 | 72 | 1014.5 |
| 20260507075306 | 64 | 207 | 2.0 | 10.0 | 0.00 | 0.01 | 0.00 | 72 | 1014.5 |
| 20260507075204 | 64 | 204 | 2.0 | 10.0 | 0.00 | 0.01 | 0.00 | 72 | 1014.4 |
| 20260507075103 | 64 | 206 | 2.0 | 10.0 | 0.00 | 0.01 | 0.00 | 71 | 1014.5 |
| 20260507075003 | 64 | 206 | 2.0 | 10.0 | 0.00 | 0.01 | 0.00 | 72 | 1014.4 |
| 20260507074903 | 64 | 206 | 1.0 | 9.0 | 0.00 | 0.01 | 0.00 | 72 | 1014.5 |
| 20260507074803 | 64 | 207 | 1.0 | 9.0 | 0.00 | 0.01 | 0.00 | 72 | 1014.4 |
| 20260507074703 | 64 | 206 | 1.0 | 9.0 | 0.00 | 0.01 | 0.00 | 72 | 1014.4 |
| 20260507074603 | 64 | 203 | 1.0 | 7.0 | 0.00 | 0.01 | 0.00 | 71 | 1014.4 |
| 20260507074503 | 64 | 205 | 1.0 | 12.0 | 0.00 | 0.01 | 0.00 | 71 | 1014.4 |
| 20260507074404 | 64 | 212 | 1.0 | 12.0 | 0.00 | 0.01 | 0.00 | 70 | 1014.4 |
| 20260507074303 | 64 | 212 | 1.0 | 12.0 | 0.00 | 0.01 | 0.00 | 72 | 1014.5 |
| 20260507074203 | 64 | 217 | 1.0 | 12.0 | 0.00 | 0.01 | 0.00 | 73 | 1014.4 |
| 20260507074103 | 63 | 216 | 1.0 | 12.0 | 0.00 | 0.01 | 0.00 | 73 | 1014.5 |
| 20260507074003 | 63 | 218 | 1.0 | 12.0 | 0.00 | 0.01 | 0.00 | 73 | 1014.5 |
| 20260507073903 | 63 | 219 | 0.0 | 12.0 | 0.00 | 0.01 | 0.00 | 72 | 1014.4 |
| 20260507073803 | 63 | 221 | 0.0 | 12.0 | 0.00 | 0.01 | 0.00 | 72 | 1014.4 |
| 20260507073703 | 63 | 222 | 0.0 | 12.0 | 0.00 | 0.01 | 0.00 | 72 | 1014.4 |
| 20260507073603 | 63 | 224 | 0.0 | 12.0 | 0.00 | 0.01 | 0.00 | 73 | 1014.4 |
| 20260507073503 | 63 | 229 | 0.0 | 10.0 | 0.00 | 0.01 | 0.00 | 73 | 1014.3 |
| 20260507073403 | 63 | 0 | 0.0 | 8.0 | 0.00 | 0.01 | 0.00 | 73 | 1014.3 |
| 20260507073303 | 63 | 0 | 0.0 | 8.0 | 0.00 | 0.01 | 0.00 | 74 | 1014.3 |
| 20260507073203 | 63 | 0 | 0.0 | 8.0 | 0.00 | 0.01 | 0.00 | 73 | 1014.3 |
| 20260507073103 | 63 | 0 | 0.0 | 8.0 | 0.00 | 0.01 | 0.00 | 73 | 1014.4 |
| 20260507073003 | 63 | 0 | 0.0 | 8.0 | 0.00 | 0.01 | 0.00 | 73 | 1014.4 |
| 20260507072903 | 63 | 0 | 0.0 | 5.0 | 0.00 | 0.01 | 0.00 | 73 | 1014.4 |
| 20260507072803 | 63 | 0 | 0.0 | 5.0 | 0.00 | 0.01 | 0.00 | 73 | 1014.4 |
| 20260507072703 | 63 | 0 | 0.0 | 5.0 | 0.00 | 0.01 | 0.00 | 72 | 1014.4 |
| 20260507072603 | 64 | 0 | 0.0 | 5.0 | 0.00 | 0.01 | 0.00 | 73 | 1014.4 |
| 20260507072503 | 64 | 0 | 0.0 | 5.0 | 0.00 | 0.01 | 0.00 | 73 | 1014.4 |
| 20260507072403 | 64 | 0 | 0.0 | 4.0 | 0.00 | 0.01 | 0.00 | 73 | 1014.4 |
| 20260507072306 | 64 | 0 | 0.0 | 4.0 | 0.00 | 0.01 | 0.00 | 74 | 1014.4 |
| 20260507072203 | 64 | 0 | 0.0 | 4.0 | 0.00 | 0.01 | 0.00 | 73 | 1014.4 |
| 20260507072103 | 64 | 0 | 0.0 | 4.0 | 0.00 | 0.01 | 0.00 | 74 | 1014.4 |
| 20260507072003 | 64 | 0 | 0.0 | 0.0 | 0.00 | 0.01 | 0.00 | 74 | 1014.4 |
| 20260507071903 | 64 | 0 | 0.0 | 0.0 | 0.00 | 0.01 | 0.00 | 73 | 1014.4 |
| 20260507071803 | 64 | 0 | 0.0 | 0.0 | 0.00 | 0.01 | 0.00 | 73 | 1014.4 |
| 20260507071703 | 64 | 0 | 0.0 | 0.0 | 0.00 | 0.01 | 0.00 | 73 | 1014.3 |
| 20260507071604 | 64 | 0 | 0.0 | 0.0 | 0.00 | 0.01 | 0.00 | 74 | 1014.3 |
| 20260507071504 | 63 | 0 | 0.0 | 0.0 | 0.00 | 0.01 | 0.00 | 74 | 1014.3 |
| 20260507071403 | 63 | 0 | 0.0 | 0.0 | 0.00 | 0.01 | 0.00 | 73 | 1014.3 |
| 20260507071303 | 63 | 0 | 0.0 | 0.0 | 0.00 | 0.01 | 0.00 | 73 | 1014.3 |
| 20260507071203 | 63 | 0 | 0.0 | 0.0 | 0.00 | 0.01 | 0.00 | 73 | 1014.3 |
| 20260507071103 | 63 | 0 | 0.0 | 0.0 | 0.00 | 0.01 | 0.00 | 74 | 1014.3 |
| 20260507071003 | 63 | 0 | 0.0 | 0.0 | 0.00 | 0.01 | 0.00 | 74 | 1014.3 |
| 20260507070904 | 63 | 0 | 0.0 | 0.0 | 0.00 | 0.01 | 0.00 | 74 | 1014.3 |
| 20260507070803 | 63 | 0 | 0.0 | 4.0 | 0.00 | 0.01 | 0.00 | 75 | 1014.3 |
| 20260507070703 | 63 | 0 | 0.0 | 4.0 | 0.00 | 0.01 | 0.00 | 75 | 1014.3 |
| 20260507070603 | 63 | 0 | 0.0 | 4.0 | 0.00 | 0.01 | 0.00 | 74 | 1014.4 |
| 20260507070503 | 63 | 0 | 0.0 | 4.0 | 0.00 | 0.01 | 0.00 | 74 | 1014.3 |
| 20260507070403 | 63 | 0 | 0.0 | 4.0 | 0.00 | 0.01 | 0.00 | 74 | 1014.3 |
| 20260507070303 | 63 | 0 | 0.0 | 4.0 | 0.00 | 0.01 | 0.00 | 73 | 1014.3 |
| 20260507070203 | 63 | 0 | 0.0 | 4.0 | 0.00 | 0.01 | 0.00 | 73 | 1014.3 |
| 20260507070103 | 63 | 0 | 0.0 | 4.0 | 0.00 | 0.01 | 0.00 | 74 | 1014.2 |
| 20260507070007 | 63 | 219 | 0.0 | 4.0 | 0.00 | 0.01 | 0.00 | 74 | 1014.2 |
| 20260507065903 | 63 | 219 | 0.0 | 4.0 | 0.00 | 0.01 | 0.00 | 74 | 1014.2 |
| 20260507065803 | 63 | 245 | 0.0 | 4.0 | 0.00 | 0.01 | 0.00 | 74 | 1014.2 |
| 20260507065703 | 63 | 247 | 0.0 | 4.0 | 0.00 | 0.01 | 0.00 | 74 | 1014.2 |
| 20260507065603 | 63 | 247 | 0.0 | 4.0 | 0.00 | 0.01 | 0.00 | 74 | 1014.2 |
| 20260507065503 | 63 | 247 | 1.0 | 4.0 | 0.00 | 0.01 | 0.00 | 73 | 1014.1 |
| 20260507065403 | 63 | 247 | 1.0 | 4.0 | 0.00 | 0.01 | 0.00 | 73 | 1014.1 |
| 20260507065306 | 63 | 247 | 1.0 | 4.0 | 0.00 | 0.01 | 0.00 | 73 | 1014.1 |
| 20260507065203 | 63 | 247 | 1.0 | 4.0 | 0.00 | 0.01 | 0.00 | 73 | 1014.1 |
| 20260507065103 | 63 | 244 | 1.0 | 6.0 | 0.00 | 0.01 | 0.00 | 73 | 1014.0 |
| 20260507065003 | 63 | 245 | 1.0 | 7.0 | 0.00 | 0.01 | 0.00 | 73 | 1014.0 |
| 20260507064903 | 63 | 244 | 1.0 | 8.0 | 0.00 | 0.01 | 0.00 | 73 | 1014.1 |
| 20260507064803 | 63 | 244 | 1.0 | 8.0 | 0.00 | 0.01 | 0.00 | 74 | 1014.0 |
| 20260507064703 | 62 | 243 | 1.0 | 8.0 | 0.00 | 0.01 | 0.00 | 74 | 1014.1 |
| 20260507064603 | 62 | 240 | 1.0 | 8.0 | 0.00 | 0.01 | 0.00 | 74 | 1014.1 |
| 20260507064504 | 62 | 240 | 1.0 | 8.0 | 0.00 | 0.01 | 0.00 | 74 | 1014.0 |
| 20260507064403 | 62 | 239 | 1.0 | 8.0 | 0.00 | 0.01 | 0.00 | 74 | 1014.0 |
| 20260507064303 | 62 | 239 | 1.0 | 8.0 | 0.00 | 0.01 | 0.00 | 74 | 1014.0 |
| 20260507064203 | 62 | 239 | 0.0 | 8.0 | 0.00 | 0.01 | 0.00 | 74 | 1014.0 |
| 20260507064103 | 62 | 239 | 0.0 | 8.0 | 0.00 | 0.01 | 0.00 | 74 | 1013.9 |
| 20260507064003 | 62 | 236 | 0.0 | 8.0 | 0.00 | 0.01 | 0.00 | 73 | 1013.9 |
| 20260507063903 | 62 | 232 | 0.0 | 7.0 | 0.00 | 0.01 | 0.00 | 74 | 1013.9 |
| 20260507063803 | 62 | 232 | 0.0 | 7.0 | 0.00 | 0.01 | 0.00 | 74 | 1013.9 |
| 20260507063704 | 62 | 0 | 0.0 | 7.0 | 0.00 | 0.01 | 0.00 | 74 | 1013.9 |
| 20260507063603 | 62 | 0 | 0.0 | 4.0 | 0.00 | 0.01 | 0.00 | 74 | 1013.9 |
| 20260507063503 | 62 | 0 | 0.0 | 4.0 | 0.00 | 0.01 | 0.00 | 75 | 1013.9 |
| 20260507063403 | 62 | 0 | 0.0 | 0.0 | 0.00 | 0.01 | 0.00 | 76 | 1013.9 |
| 20260507063303 | 62 | 0 | 0.0 | 0.0 | 0.00 | 0.01 | 0.00 | 75 | 1013.9 |
| 20260507063204 | 62 | 0 | 0.0 | 0.0 | 0.00 | 0.01 | 0.00 | 76 | 1013.9 |
| 20260507063103 | 62 | 0 | 0.0 | 0.0 | 0.00 | 0.01 | 0.00 | 75 | 1013.9 |
| 20260507063003 | 62 | 0 | 0.0 | 0.0 | 0.00 | 0.01 | 0.00 | 75 | 1013.9 |
| 20260507062903 | 62 | 0 | 0.0 | 0.0 | 0.00 | 0.01 | 0.00 | 75 | 1013.8 |
| 20260507062803 | 62 | 0 | 0.0 | 0.0 | 0.00 | 0.01 | 0.00 | 75 | 1013.8 |
| 20260507062703 | 62 | 0 | 0.0 | 0.0 | 0.00 | 0.01 | 0.00 | 75 | 1013.9 |
| 20260507062603 | 62 | 0 | 0.0 | 0.0 | 0.00 | 0.01 | 0.00 | 75 | 1013.8 |
| 20260507062503 | 62 | 0 | 0.0 | 0.0 | 0.00 | 0.01 | 0.00 | 76 | 1013.8 |
| 20260507062403 | 62 | 0 | 0.0 | 0.0 | 0.00 | 0.01 | 0.00 | 76 | 1013.9 |
| 20260507062306 | 62 | 0 | 0.0 | 0.0 | 0.00 | 0.01 | 0.00 | 77 | 1013.9 |
| 20260507062203 | 62 | 0 | 0.0 | 0.0 | 0.00 | 0.01 | 0.00 | 76 | 1013.9 |
| 20260507062103 | 61 | 0 | 0.0 | 0.0 | 0.00 | 0.01 | 0.00 | 76 | 1013.8 |
| 20260507062003 | 61 | 0 | 0.0 | 0.0 | 0.00 | 0.01 | 0.00 | 76 | 1013.7 |
| 20260507061903 | 61 | 0 | 0.0 | 0.0 | 0.00 | 0.01 | 0.00 | 76 | 1013.7 |
| 20260507061803 | 61 | 0 | 0.0 | 0.0 | 0.00 | 0.01 | 0.00 | 76 | 1013.8 |
| 20260507061703 | 61 | 0 | 0.0 | 0.0 | 0.00 | 0.01 | 0.00 | 77 | 1013.8 |
| 20260507061603 | 61 | 0 | 0.0 | 1.0 | 0.00 | 0.01 | 0.00 | 76 | 1013.8 |
| 20260507061503 | 61 | 0 | 0.0 | 4.0 | 0.00 | 0.01 | 0.00 | 76 | 1013.8 |
| 20260507061403 | 61 | 0 | 0.0 | 4.0 | 0.00 | 0.01 | 0.00 | 77 | 1013.7 |
| 20260507061303 | 61 | 0 | 0.0 | 4.0 | 0.00 | 0.01 | 0.00 | 76 | 1013.7 |
| 20260507061203 | 61 | 0 | 0.0 | 4.0 | 0.00 | 0.01 | 0.00 | 77 | 1013.7 |
| 20260507061103 | 61 | 0 | 0.0 | 4.0 | 0.00 | 0.01 | 0.00 | 76 | 1013.8 |
| 20260507061003 | 61 | 0 | 0.0 | 4.0 | 0.00 | 0.01 | 0.00 | 76 | 1013.7 |
| 20260507060903 | 61 | 0 | 0.0 | 4.0 | 0.00 | 0.01 | 0.00 | 76 | 1013.7 |
| 20260507060804 | 61 | 0 | 0.0 | 4.0 | 0.00 | 0.01 | 0.00 | 76 | 1013.7 |
| 20260507060703 | 61 | 0 | 0.0 | 4.0 | 0.00 | 0.01 | 0.00 | 76 | 1013.8 |
| 20260507060603 | 61 | 0 | 0.0 | 4.0 | 0.00 | 0.01 | 0.00 | 79 | 1013.8 |
| 20260507060503 | 61 | 0 | 0.0 | 0.0 | 0.00 | 0.01 | 0.00 | 78 | 1013.8 |
| 20260507060403 | 61 | 0 | 0.0 | 2.0 | 0.00 | 0.01 | 0.00 | 79 | 1013.8 |
| 20260507060303 | 61 | 0 | 0.0 | 2.0 | 0.00 | 0.01 | 0.00 | 78 | 1013.7 |
| 20260507060204 | 61 | 0 | 0.0 | 2.0 | 0.00 | 0.01 | 0.00 | 78 | 1013.7 |
| 20260507060103 | 61 | 0 | 0.0 | 2.0 | 0.00 | 0.01 | 0.00 | 78 | 1013.7 |
| 20260507060004 | 61 | 0 | 0.0 | 2.0 | 0.00 | 0.01 | 0.00 | 77 | 1013.7 |
| 20260507055903 | 61 | 0 | 0.0 | 2.0 | 0.00 | 0.01 | 0.00 | 78 | 1013.7 |
| 20260507055803 | 61 | 0 | 0.0 | 2.0 | 0.00 | 0.01 | 0.00 | 78 | 1013.7 |
| 20260507055703 | 61 | 0 | 0.0 | 2.0 | 0.00 | 0.01 | 0.00 | 78 | 1013.7 |
| 20260507055603 | 60 | 0 | 0.0 | 2.0 | 0.00 | 0.01 | 0.00 | 78 | 1013.7 |
| 20260507055503 | 60 | 0 | 0.0 | 2.0 | 0.00 | 0.01 | 0.00 | 80 | 1013.7 |
| 20260507055403 | 60 | 0 | 0.0 | 0.0 | 0.00 | 0.01 | 0.00 | 80 | 1013.7 |
| 20260507055305 | 60 | 0 | 0.0 | 0.0 | 0.00 | 0.01 | 0.00 | 79 | 1013.7 |
| 20260507055203 | 60 | 0 | 0.0 | 0.0 | 0.00 | 0.01 | 0.00 | 78 | 1013.7 |
| 20260507055103 | 60 | 0 | 0.0 | 0.0 | 0.00 | 0.02 | 0.00 | 79 | 1013.7 |
| 20260507055003 | 60 | 0 | 0.0 | 0.0 | 0.00 | 0.02 | 0.00 | 79 | 1013.7 |
| 20260507054903 | 60 | 0 | 0.0 | 0.0 | 0.00 | 0.02 | 0.00 | 80 | 1013.7 |
| 20260507054806 | 60 | 0 | 0.0 | 0.0 | 0.00 | 0.03 | 0.00 | 79 | 1013.7 |
| 20260507054703 | 60 | 0 | 0.0 | 0.0 | 0.00 | 0.03 | 0.00 | 80 | 1013.7 |
| 20260507054603 | 60 | 0 | 0.0 | 0.0 | 0.00 | 0.03 | 0.00 | 80 | 1013.7 |
| 20260507054503 | 60 | 0 | 0.0 | 0.0 | 0.00 | 0.04 | 0.00 | 80 | 1013.7 |
| 20260507054403 | 60 | 0 | 0.0 | 0.0 | 0.00 | 0.04 | 0.00 | 81 | 1013.7 |
| 20260507054303 | 60 | 0 | 0.0 | 0.0 | 0.00 | 0.04 | 0.00 | 81 | 1013.7 |
| 20260507054203 | 60 | 0 | 0.0 | 0.0 | 0.00 | 0.04 | 0.00 | 81 | 1013.7 |
| 20260507054103 | 60 | 0 | 0.0 | 0.0 | 0.00 | 0.04 | 0.00 | 80 | 1013.6 |
| 20260507054003 | 60 | 0 | 0.0 | 0.0 | 0.00 | 0.04 | 0.00 | 80 | 1013.6 |
| 20260507053903 | 60 | 0 | 0.0 | 0.0 | 0.00 | 0.04 | 0.00 | 81 | 1013.6 |
| 20260507053803 | 60 | 0 | 0.0 | 0.0 | 0.00 | 0.04 | 0.00 | 81 | 1013.6 |
| 20260507053704 | 59 | 0 | 0.0 | 0.0 | 0.00 | 0.04 | 0.00 | 82 | 1013.6 |
| 20260507053603 | 59 | 0 | 0.0 | 0.0 | 0.00 | 0.04 | 0.00 | 81 | 1013.6 |
| 20260507053503 | 59 | 0 | 0.0 | 0.0 | 0.00 | 0.05 | 0.00 | 80 | 1013.5 |
| 20260507053403 | 59 | 0 | 0.0 | 0.0 | 0.00 | 0.05 | 0.00 | 80 | 1013.5 |
| 20260507053303 | 59 | 0 | 0.0 | 0.0 | 0.00 | 0.07 | 0.00 | 81 | 1013.5 |
| 20260507053204 | 59 | 0 | 0.0 | 0.0 | 0.00 | 0.08 | 0.00 | 82 | 1013.6 |
| 20260507053103 | 59 | 0 | 0.0 | 0.0 | 0.00 | 0.09 | 0.00 | 83 | 1013.5 |
| 20260507053004 | 59 | 0 | 0.0 | 0.0 | 0.00 | 0.10 | 0.00 | 83 | 1013.5 |
| 20260507052903 | 59 | 0 | 0.0 | 0.0 | 0.00 | 0.10 | 0.00 | 83 | 1013.6 |
| 20260507052803 | 59 | 0 | 0.0 | 0.0 | 0.00 | 0.12 | 0.00 | 83 | 1013.5 |
| 20260507052704 | 59 | 0 | 0.0 | 0.0 | 0.00 | 0.14 | 0.00 | 83 | 1013.5 |
| 20260507052603 | 59 | 0 | 0.0 | 0.0 | 0.00 | 0.19 | 0.00 | 83 | 1013.5 |
| 20260507052503 | 59 | 0 | 0.0 | 0.0 | 0.00 | 0.21 | 0.00 | 83 | 1013.4 |
| 20260507052403 | 59 | 0 | 0.0 | 0.0 | 0.00 | 0.23 | 0.00 | 84 | 1013.5 |
| 20260507052306 | 58 | 0 | 0.0 | 0.0 | 0.00 | 0.24 | 0.00 | 83 | 1013.5 |
| 20260507052203 | 58 | 0 | 0.0 | 0.0 | 0.00 | 0.25 | 0.00 | 82 | 1013.4 |
| 20260507052103 | 58 | 0 | 0.0 | 0.0 | 0.00 | 0.27 | 0.00 | 84 | 1013.4 |
| 20260507052003 | 58 | 0 | 0.0 | 0.0 | 0.00 | 0.29 | 0.00 | 84 | 1013.4 |
| 20260507051903 | 58 | 0 | 0.0 | 0.0 | 0.00 | 0.31 | 0.00 | 84 | 1013.3 |
| 20260507051803 | 58 | 0 | 0.0 | 0.0 | 0.00 | 0.31 | 0.00 | 84 | 1013.4 |
| 20260507051703 | 58 | 0 | 0.0 | 0.0 | 0.00 | 0.34 | 0.00 | 83 | 1013.4 |
| 20260507051603 | 58 | 0 | 0.0 | 0.0 | 0.00 | 0.37 | 0.00 | 83 | 1013.4 |
| 20260507051503 | 58 | 0 | 0.0 | 0.0 | 0.00 | 0.40 | 0.00 | 83 | 1013.4 |
| 20260507051403 | 58 | 0 | 0.0 | 0.0 | 0.00 | 0.49 | 0.00 | 82 | 1013.5 |
| 20260507051303 | 58 | 0 | 0.0 | 0.0 | 0.00 | 0.54 | 0.00 | 82 | 1013.5 |
| 20260507051203 | 58 | 0 | 0.0 | 0.0 | 0.00 | 0.59 | 0.00 | 82 | 1013.5 |
| 20260507051103 | 58 | 0 | 0.0 | 0.0 | 0.00 | 0.61 | 0.00 | 82 | 1013.4 |
| 20260507051003 | 58 | 0 | 0.0 | 0.0 | 0.00 | 0.64 | 0.00 | 82 | 1013.4 |
| 20260507050903 | 58 | 0 | 0.0 | 0.0 | 0.00 | 0.65 | 0.00 | 83 | 1013.4 |
| 20260507050803 | 58 | 0 | 0.0 | 0.0 | 0.00 | 0.66 | 0.00 | 83 | 1013.4 |
| 20260507050703 | 58 | 0 | 0.0 | 0.0 | 0.00 | 0.66 | 0.00 | 82 | 1013.3 |
| 20260507050603 | 58 | 0 | 0.0 | 0.0 | 0.00 | 0.66 | 0.00 | 82 | 1013.3 |
| 20260507050503 | 58 | 0 | 0.0 | 0.0 | 0.00 | 0.66 | 0.00 | 82 | 1013.3 |
| 20260507050403 | 58 | 0 | 0.0 | 0.0 | 0.00 | 0.66 | 0.00 | 82 | 1013.3 |
| 20260507050303 | 58 | 0 | 0.0 | 0.0 | 0.00 | 0.66 | 0.00 | 82 | 1013.3 |
| 20260507050203 | 58 | 0 | 0.0 | 0.0 | 0.00 | 0.66 | 0.00 | 83 | 1013.3 |
| 20260507050103 | 58 | 0 | 0.0 | 0.0 | 0.00 | 0.66 | 0.00 | 83 | 1013.3 |
| 20260507050003 | 58 | 0 | 0.0 | 0.0 | 0.00 | 0.66 | 0.00 | 82 | 1013.2 |
| 20260507045903 | 58 | 0 | 0.0 | 0.0 | 0.00 | 0.66 | 0.00 | 81 | 1013.2 |
| 20260507045803 | 58 | 0 | 0.0 | 0.0 | 0.00 | 0.66 | 0.00 | 81 | 1013.2 |
| 20260507045703 | 58 | 0 | 0.0 | 0.0 | 0.00 | 0.66 | 0.00 | 81 | 1013.2 |
| 20260507045603 | 58 | 0 | 0.0 | 0.0 | 0.00 | 0.66 | 0.00 | 82 | 1013.3 |
| 20260507045503 | 58 | 0 | 0.0 | 0.0 | 0.00 | 0.66 | 0.00 | 83 | 1013.3 |
| 20260507045403 | 58 | 0 | 0.0 | 0.0 | 0.00 | 0.66 | 0.00 | 83 | 1013.3 |
| 20260507045306 | 58 | 0 | 0.0 | 0.0 | 0.00 | 0.67 | 0.00 | 84 | 1013.3 |
| 20260507045203 | 58 | 0 | 0.0 | 0.0 | 0.00 | 0.67 | 0.00 | 84 | 1013.2 |
| 20260507045103 | 58 | 0 | 0.0 | 0.0 | 0.00 | 0.67 | 0.00 | 84 | 1013.2 |
| 20260507045003 | 58 | 0 | 0.0 | 0.0 | 0.00 | 0.68 | 0.00 | 84 | 1013.2 |
| 20260507044904 | 58 | 0 | 0.0 | 0.0 | 0.00 | 0.69 | 0.00 | 84 | 1013.2 |
| 20260507044803 | 58 | 0 | 0.0 | 0.0 | 0.00 | 0.70 | 0.00 | 84 | 1013.2 |
| 20260507044703 | 58 | 0 | 0.0 | 0.0 | 0.00 | 0.70 | 0.00 | 84 | 1013.2 |
| 20260507044604 | 58 | 0 | 0.0 | 0.0 | 0.00 | 0.70 | 0.00 | 84 | 1013.2 |
| 20260507044503 | 58 | 0 | 0.0 | 0.0 | 0.00 | 0.70 | 0.00 | 84 | 1013.2 |
| 20260507044405 | 58 | 0 | 0.0 | 0.0 | 0.00 | 0.71 | 0.00 | 84 | 1013.2 |
| 20260507044303 | 58 | 0 | 0.0 | 0.0 | 0.00 | 0.72 | 0.00 | 84 | 1013.2 |
| 20260507044203 | 58 | 0 | 0.0 | 0.0 | 0.00 | 0.72 | 0.00 | 84 | 1013.1 |
| 20260507044103 | 58 | 0 | 0.0 | 0.0 | 0.00 | 0.73 | 0.00 | 84 | 1013.1 |
| 20260507044004 | 58 | 0 | 0.0 | 0.0 | 0.00 | 0.73 | 0.00 | 83 | 1013.2 |
| 20260507043903 | 58 | 0 | 0.0 | 0.0 | 0.00 | 0.74 | 0.00 | 85 | 1013.2 |
| 20260507043803 | 58 | 0 | 0.0 | 0.0 | 0.00 | 0.74 | 0.00 | 85 | 1013.2 |
| 20260507043703 | 58 | 0 | 0.0 | 0.0 | 0.00 | 0.74 | 0.00 | 85 | 1013.2 |
| 20260507043603 | 58 | 0 | 0.0 | 0.0 | 0.00 | 0.74 | 0.00 | 85 | 1013.1 |
| 20260507043503 | 58 | 0 | 0.0 | 0.0 | 0.00 | 0.74 | 0.00 | 85 | 1013.1 |
| 20260507043403 | 58 | 0 | 0.0 | 0.0 | 0.00 | 0.74 | 0.00 | 85 | 1013.1 |
| 20260507043303 | 58 | 0 | 0.0 | 0.0 | 0.00 | 0.74 | 0.00 | 84 | 1013.1 |
| 20260507043204 | 58 | 0 | 0.0 | 0.0 | 0.00 | 0.74 | 0.00 | 84 | 1013.1 |
| 20260507043103 | 58 | 0 | 0.0 | 0.0 | 0.00 | 0.74 | 0.00 | 84 | 1013.1 |
| 20260507043003 | 58 | 0 | 0.0 | 0.0 | 0.00 | 0.74 | 0.00 | 85 | 1013.0 |
| 20260507042903 | 58 | 0 | 0.0 | 0.0 | 0.00 | 0.74 | 0.00 | 84 | 1013.1 |
| 20260507042803 | 58 | 0 | 0.0 | 0.0 | 0.00 | 0.74 | 0.00 | 85 | 1013.1 |
| 20260507042703 | 58 | 0 | 0.0 | 0.0 | 0.00 | 0.74 | 0.00 | 84 | 1013.1 |
| 20260507042603 | 58 | 0 | 0.0 | 0.0 | 0.00 | 0.74 | 0.00 | 85 | 1013.0 |
| 20260507042503 | 58 | 0 | 0.0 | 0.0 | 0.00 | 0.74 | 0.00 | 84 | 1013.0 |
| 20260507042403 | 58 | 0 | 0.0 | 0.0 | 0.00 | 0.74 | 0.00 | 84 | 1013.1 |
| 20260507042306 | 57 | 0 | 0.0 | 0.0 | 0.00 | 0.74 | 0.00 | 84 | 1013.1 |
| 20260507042203 | 57 | 0 | 0.0 | 0.0 | 0.00 | 0.74 | 0.00 | 84 | 1013.1 |
| 20260507042103 | 57 | 0 | 0.0 | 0.0 | 0.00 | 0.74 | 0.00 | 85 | 1013.0 |
| 20260507042003 | 57 | 0 | 0.0 | 0.0 | 0.00 | 0.74 | 0.00 | 85 | 1013.0 |
| 20260507041903 | 57 | 0 | 0.0 | 0.0 | 0.00 | 0.74 | 0.00 | 85 | 1013.0 |
| 20260507041803 | 57 | 0 | 0.0 | 0.0 | 0.00 | 0.74 | 0.00 | 85 | 1013.0 |
| 20260507041703 | 57 | 0 | 0.0 | 0.0 | 0.00 | 0.74 | 0.00 | 85 | 1013.0 |
| 20260507041603 | 57 | 0 | 0.0 | 0.0 | 0.00 | 0.74 | 0.00 | 85 | 1012.9 |
| 20260507041503 | 57 | 0 | 0.0 | 0.0 | 0.00 | 0.74 | 0.00 | 85 | 1013.0 |
| 20260507041403 | 57 | 0 | 0.0 | 0.0 | 0.00 | 0.74 | 0.00 | 85 | 1012.9 |
| 20260507041303 | 57 | 0 | 0.0 | 0.0 | 0.00 | 0.74 | 0.00 | 85 | 1012.9 |
| 20260507041203 | 57 | 0 | 0.0 | 0.0 | 0.00 | 0.74 | 0.00 | 85 | 1012.9 |
| 20260507041103 | 57 | 0 | 0.0 | 0.0 | 0.00 | 0.74 | 0.00 | 86 | 1012.9 |
| 20260507041003 | 57 | 0 | 0.0 | 0.0 | 0.00 | 0.74 | 0.00 | 86 | 1012.9 |
| 20260507040903 | 57 | 0 | 0.0 | 0.0 | 0.00 | 0.74 | 0.00 | 86 | 1012.9 |
| 20260507040803 | 57 | 0 | 0.0 | 0.0 | 0.00 | 0.74 | 0.00 | 86 | 1012.9 |
| 20260507040703 | 57 | 0 | 0.0 | 0.0 | 0.00 | 0.74 | 0.00 | 86 | 1012.9 |
| 20260507040603 | 57 | 0 | 0.0 | 0.0 | 0.00 | 0.74 | 0.00 | 86 | 1012.9 |
| 20260507040503 | 57 | 0 | 0.0 | 0.0 | 0.00 | 0.74 | 0.00 | 86 | 1012.9 |
| 20260507040403 | 57 | 0 | 0.0 | 0.0 | 0.00 | 0.75 | 0.00 | 86 | 1012.9 |
| 20260507040303 | 57 | 0 | 0.0 | 0.0 | 0.00 | 0.75 | 0.00 | 86 | 1012.9 |
| 20260507040203 | 57 | 0 | 0.0 | 0.0 | 0.00 | 0.75 | 0.00 | 86 | 1012.9 |
| 20260507040103 | 57 | 0 | 0.0 | 0.0 | 0.00 | 0.75 | 0.00 | 86 | 1012.9 |
| 20260507040003 | 57 | 0 | 0.0 | 0.0 | 0.00 | 0.75 | 0.00 | 86 | 1012.9 |
| 20260507035903 | 57 | 0 | 0.0 | 0.0 | 0.00 | 0.75 | 0.00 | 86 | 1012.9 |
| 20260507035803 | 57 | 0 | 0.0 | 0.0 | 0.00 | 0.75 | 0.00 | 87 | 1012.9 |
| 20260507035703 | 57 | 0 | 0.0 | 0.0 | 0.00 | 0.76 | 0.00 | 87 | 1012.9 |
| 20260507035603 | 57 | 0 | 0.0 | 0.0 | 0.00 | 0.77 | 0.00 | 86 | 1013.0 |
| 20260507035503 | 57 | 0 | 0.0 | 0.0 | 0.00 | 0.78 | 0.00 | 86 | 1012.9 |
| 20260507035403 | 57 | 0 | 0.0 | 0.0 | 0.00 | 0.78 | 0.00 | 87 | 1013.0 |
| 20260507035306 | 57 | 0 | 0.0 | 0.0 | 0.00 | 0.78 | 0.00 | 87 | 1013.0 |
| 20260507035203 | 57 | 0 | 0.0 | 0.0 | 0.00 | 0.78 | 0.00 | 87 | 1013.0 |
| 20260507035104 | 57 | 0 | 0.0 | 0.0 | 0.00 | 0.78 | 0.00 | 87 | 1012.9 |
| 20260507035003 | 57 | 0 | 0.0 | 0.0 | 0.00 | 0.78 | 0.00 | 88 | 1013.0 |
| 20260507034903 | 57 | 0 | 0.0 | 0.0 | 0.00 | 0.78 | 0.00 | 88 | 1012.9 |
| 20260507034803 | 57 | 0 | 0.0 | 0.0 | 0.00 | 0.78 | 0.00 | 88 | 1012.9 |
| 20260507034704 | 57 | 0 | 0.0 | 0.0 | 0.00 | 0.78 | 0.00 | 87 | 1013.0 |
| 20260507034603 | 57 | 0 | 0.0 | 0.0 | 0.00 | 0.79 | 0.00 | 87 | 1013.0 |
| 20260507034503 | 57 | 0 | 0.0 | 0.0 | 0.00 | 0.80 | 0.00 | 87 | 1013.0 |
| 20260507034404 | 57 | 0 | 0.0 | 0.0 | 0.00 | 0.84 | 0.00 | 87 | 1013.0 |
| 20260507034303 | 57 | 0 | 0.0 | 0.0 | 0.00 | 0.87 | 0.00 | 88 | 1013.1 |
| 20260507034203 | 57 | 0 | 0.0 | 0.0 | 0.00 | 0.88 | 0.00 | 87 | 1013.1 |
| 20260507034103 | 57 | 0 | 0.0 | 0.0 | 0.00 | 0.88 | 0.00 | 88 | 1013.0 |
| 20260507034003 | 57 | 0 | 0.0 | 0.0 | 0.00 | 0.88 | 0.00 | 88 | 1013.1 |
| 20260507033903 | 57 | 0 | 0.0 | 0.0 | 0.00 | 0.88 | 0.00 | 88 | 1013.0 |
| 20260507033804 | 57 | 0 | 0.0 | 0.0 | 0.00 | 0.88 | 0.00 | 88 | 1013.0 |
| 20260507033703 | 57 | 0 | 0.0 | 0.0 | 0.00 | 0.88 | 0.00 | 88 | 1013.0 |
| 20260507033603 | 57 | 0 | 0.0 | 0.0 | 0.00 | 0.88 | 0.00 | 88 | 1013.1 |
| 20260507033503 | 57 | 0 | 0.0 | 0.0 | 0.00 | 0.88 | 0.00 | 88 | 1013.0 |
| 20260507033403 | 57 | 0 | 0.0 | 0.0 | 0.00 | 0.88 | 0.00 | 88 | 1013.0 |
| 20260507033303 | 57 | 0 | 0.0 | 0.0 | 0.00 | 0.88 | 0.00 | 88 | 1013.0 |
| 20260507033203 | 57 | 0 | 0.0 | 0.0 | 0.00 | 0.88 | 0.00 | 88 | 1013.0 |
| 20260507033103 | 57 | 0 | 0.0 | 0.0 | 0.00 | 0.88 | 0.00 | 88 | 1013.0 |
| 20260507033003 | 57 | 0 | 0.0 | 0.0 | 0.00 | 0.88 | 0.00 | 87 | 1013.0 |
| 20260507032903 | 57 | 0 | 0.0 | 0.0 | 0.00 | 0.88 | 0.00 | 88 | 1013.0 |
| 20260507032803 | 57 | 0 | 0.0 | 0.0 | 0.00 | 0.88 | 0.00 | 88 | 1013.0 |
| 20260507032703 | 57 | 0 | 0.0 | 0.0 | 0.00 | 0.88 | 0.00 | 88 | 1013.0 |
| 20260507032603 | 57 | 0 | 0.0 | 0.0 | 0.00 | 0.88 | 0.00 | 88 | 1013.0 |
| 20260507032503 | 57 | 0 | 0.0 | 0.0 | 0.00 | 0.88 | 0.00 | 88 | 1013.0 |
| 20260507032403 | 57 | 0 | 0.0 | 0.0 | 0.00 | 0.88 | 0.00 | 88 | 1013.0 |
| 20260507032305 | 57 | 0 | 0.0 | 0.0 | 0.00 | 0.88 | 0.00 | 88 | 1013.0 |
| 20260507032203 | 57 | 0 | 0.0 | 0.0 | 0.00 | 0.88 | 0.00 | 88 | 1012.9 |
| 20260507032103 | 57 | 0 | 0.0 | 0.0 | 0.00 | 0.88 | 0.00 | 88 | 1012.9 |
| 20260507032003 | 56 | 0 | 0.0 | 0.0 | 0.00 | 0.88 | 0.00 | 88 | 1012.9 |
| 20260507031903 | 56 | 0 | 0.0 | 0.0 | 0.00 | 0.88 | 0.00 | 88 | 1012.9 |
| 20260507031803 | 56 | 0 | 0.0 | 0.0 | 0.00 | 0.88 | 0.00 | 88 | 1012.9 |
| 20260507031703 | 56 | 0 | 0.0 | 0.0 | 0.00 | 0.88 | 0.00 | 88 | 1013.0 |
| 20260507031603 | 56 | 0 | 0.0 | 0.0 | 0.00 | 0.88 | 0.00 | 88 | 1012.9 |
| 20260507031503 | 56 | 0 | 0.0 | 0.0 | 0.00 | 0.89 | 0.00 | 88 | 1013.0 |
| 20260507031403 | 56 | 0 | 0.0 | 0.0 | 0.00 | 0.89 | 0.00 | 88 | 1013.0 |
| 20260507031303 | 56 | 0 | 0.0 | 0.0 | 0.00 | 0.89 | 0.00 | 88 | 1013.0 |
| 20260507031203 | 56 | 0 | 0.0 | 0.0 | 0.00 | 0.89 | 0.00 | 88 | 1013.0 |
| 20260507031103 | 56 | 0 | 0.0 | 0.0 | 0.00 | 0.89 | 0.00 | 89 | 1013.0 |
| 20260507031003 | 56 | 0 | 0.0 | 0.0 | 0.00 | 0.89 | 0.00 | 89 | 1013.0 |
| 20260507030903 | 56 | 0 | 0.0 | 0.0 | 0.00 | 0.89 | 0.00 | 89 | 1013.1 |
| 20260507030803 | 56 | 0 | 0.0 | 0.0 | 0.00 | 0.89 | 0.00 | 89 | 1013.0 |
| 20260507030703 | 56 | 0 | 0.0 | 0.0 | 0.00 | 0.89 | 0.00 | 89 | 1013.0 |
| 20260507030603 | 56 | 0 | 0.0 | 0.0 | 0.00 | 0.89 | 0.00 | 89 | 1013.0 |
| 20260507030503 | 56 | 0 | 0.0 | 0.0 | 0.00 | 0.89 | 0.00 | 90 | 1013.0 |
| 20260507030403 | 56 | 0 | 0.0 | 0.0 | 0.00 | 0.89 | 0.00 | 90 | 1013.0 |
| 20260507030303 | 56 | 0 | 0.0 | 0.0 | 0.00 | 0.89 | 0.00 | 90 | 1013.0 |
| 20260507030203 | 56 | 0 | 0.0 | 0.0 | 0.00 | 0.89 | 0.00 | 90 | 1013.0 |
| 20260507030003 | 56 | 0 | 0.0 | 0.0 | 0.00 | 0.89 | 0.00 | 89 | 1013.0 |
| 20260507025903 | 56 | 0 | 0.0 | 0.0 | 0.00 | 0.89 | 0.00 | 89 | 1013.0 |
| 20260507025803 | 56 | 0 | 0.0 | 0.0 | 0.00 | 0.89 | 0.00 | 89 | 1013.0 |
| 20260507025703 | 56 | 0 | 0.0 | 0.0 | 0.00 | 0.89 | 0.00 | 90 | 1013.0 |
| 20260507025603 | 56 | 0 | 0.0 | 0.0 | 0.00 | 0.89 | 0.00 | 90 | 1013.0 |
| 20260507025503 | 56 | 0 | 0.0 | 0.0 | 0.00 | 0.89 | 0.00 | 90 | 1013.0 |
| 20260507025403 | 56 | 0 | 0.0 | 0.0 | 0.00 | 0.89 | 0.00 | 90 | 1013.0 |
| 20260507025306 | 56 | 0 | 0.0 | 0.0 | 0.00 | 0.89 | 0.00 | 90 | 1013.0 |
| 20260507025203 | 56 | 0 | 0.0 | 0.0 | 0.00 | 0.89 | 0.00 | 90 | 1013.0 |
| 20260507025103 | 56 | 0 | 0.0 | 0.0 | 0.00 | 0.89 | 0.00 | 90 | 1013.1 |
| 20260507025003 | 56 | 0 | 0.0 | 0.0 | 0.00 | 0.89 | 0.00 | 90 | 1013.0 |
| 20260507024903 | 56 | 0 | 0.0 | 0.0 | 0.00 | 0.89 | 0.00 | 90 | 1013.0 |
| 20260507024803 | 56 | 0 | 0.0 | 0.0 | 0.00 | 0.89 | 0.00 | 90 | 1013.0 |
| 20260507024703 | 56 | 0 | 0.0 | 0.0 | 0.00 | 0.89 | 0.00 | 90 | 1013.0 |
| 20260507024603 | 56 | 0 | 0.0 | 0.0 | 0.00 | 0.89 | 0.00 | 90 | 1013.0 |
| 20260507024503 | 55 | 0 | 0.0 | 0.0 | 0.00 | 0.89 | 0.00 | 90 | 1013.0 |
| 20260507024403 | 55 | 0 | 0.0 | 0.0 | 0.00 | 0.89 | 0.00 | 90 | 1013.0 |
| 20260507024303 | 55 | 0 | 0.0 | 0.0 | 0.00 | 0.89 | 0.00 | 90 | 1013.0 |
| 20260507024203 | 55 | 0 | 0.0 | 0.0 | 0.00 | 0.89 | 0.00 | 90 | 1013.0 |
| 20260507024103 | 55 | 0 | 0.0 | 0.0 | 0.00 | 0.89 | 0.00 | 90 | 1013.0 |
| 20260507024003 | 55 | 0 | 0.0 | 0.0 | 0.00 | 0.89 | 0.00 | 90 | 1013.0 |
| 20260507023903 | 55 | 0 | 0.0 | 0.0 | 0.00 | 0.89 | 0.00 | 90 | 1013.0 |
| 20260507023803 | 55 | 0 | 0.0 | 0.0 | 0.00 | 0.89 | 0.00 | 90 | 1013.0 |
| 20260507023703 | 55 | 0 | 0.0 | 0.0 | 0.00 | 0.89 | 0.00 | 90 | 1013.0 |
| 20260507023604 | 55 | 0 | 0.0 | 0.0 | 0.00 | 0.89 | 0.00 | 90 | 1013.0 |
| 20260507023503 | 55 | 0 | 0.0 | 0.0 | 0.00 | 0.89 | 0.00 | 90 | 1013.1 |
| 20260507023403 | 55 | 0 | 0.0 | 0.0 | 0.00 | 0.89 | 0.00 | 90 | 1013.0 |
| 20260507023303 | 55 | 0 | 0.0 | 0.0 | 0.00 | 0.89 | 0.00 | 90 | 1013.0 |
| 20260507023203 | 55 | 0 | 0.0 | 0.0 | 0.00 | 0.89 | 0.00 | 90 | 1013.0 |
| 20260507023103 | 55 | 0 | 0.0 | 0.0 | 0.00 | 0.89 | 0.00 | 90 | 1013.0 |
| 20260507023004 | 55 | 0 | 0.0 | 0.0 | 0.00 | 0.89 | 0.00 | 90 | 1013.0 |
| 20260507022903 | 55 | 0 | 0.0 | 0.0 | 0.00 | 0.89 | 0.00 | 90 | 1013.0 |
| 20260507022803 | 55 | 0 | 0.0 | 0.0 | 0.00 | 0.89 | 0.00 | 90 | 1013.0 |
| 20260507022703 | 55 | 0 | 0.0 | 0.0 | 0.00 | 0.89 | 0.00 | 90 | 1013.1 |
| 20260507022603 | 55 | 0 | 0.0 | 0.0 | 0.00 | 0.89 | 0.00 | 90 | 1013.1 |
| 20260507022503 | 55 | 0 | 0.0 | 0.0 | 0.00 | 0.89 | 0.00 | 90 | 1013.0 |
| 20260507022403 | 55 | 0 | 0.0 | 0.0 | 0.00 | 0.89 | 0.00 | 90 | 1013.1 |
| 20260507022306 | 55 | 0 | 0.0 | 0.0 | 0.00 | 0.89 | 0.00 | 90 | 1013.1 |
| 20260507022203 | 55 | 0 | 0.0 | 0.0 | 0.00 | 0.89 | 0.00 | 90 | 1013.1 |
| 20260507022103 | 55 | 0 | 0.0 | 0.0 | 0.00 | 0.89 | 0.00 | 90 | 1013.1 |
| 20260507022003 | 55 | 0 | 0.0 | 0.0 | 0.00 | 0.89 | 0.00 | 90 | 1013.1 |
| 20260507021903 | 55 | 0 | 0.0 | 0.0 | 0.00 | 0.89 | 0.00 | 90 | 1013.1 |
| 20260507021803 | 55 | 0 | 0.0 | 0.0 | 0.00 | 0.89 | 0.00 | 90 | 1013.2 |
| 20260507021703 | 55 | 0 | 0.0 | 0.0 | 0.00 | 0.89 | 0.00 | 90 | 1013.2 |
| 20260507021603 | 55 | 0 | 0.0 | 0.0 | 0.00 | 0.89 | 0.00 | 90 | 1013.1 |
| 20260507021503 | 55 | 0 | 0.0 | 0.0 | 0.00 | 0.89 | 0.00 | 90 | 1013.2 |
| 20260507021404 | 55 | 0 | 0.0 | 0.0 | 0.00 | 0.89 | 0.00 | 90 | 1013.2 |
| 20260507021303 | 55 | 0 | 0.0 | 0.0 | 0.00 | 0.89 | 0.00 | 90 | 1013.1 |
| 20260507021203 | 55 | 0 | 0.0 | 0.0 | 0.00 | 0.90 | 0.00 | 90 | 1013.1 |
| 20260507021103 | 55 | 0 | 0.0 | 0.0 | 0.00 | 0.90 | 0.00 | 90 | 1013.2 |
| 20260507021003 | 55 | 0 | 0.0 | 0.0 | 0.00 | 0.90 | 0.00 | 90 | 1013.1 |
| 20260507020903 | 55 | 0 | 0.0 | 0.0 | 0.00 | 0.90 | 0.00 | 90 | 1013.0 |
| 20260507020803 | 55 | 0 | 0.0 | 0.0 | 0.00 | 0.90 | 0.00 | 90 | 1013.1 |
| 20260507020703 | 55 | 0 | 0.0 | 0.0 | 0.00 | 0.90 | 0.00 | 90 | 1013.1 |
| 20260507020603 | 55 | 0 | 0.0 | 0.0 | 0.00 | 0.90 | 0.00 | 90 | 1013.1 |
| 20260507020503 | 55 | 0 | 0.0 | 0.0 | 0.00 | 0.90 | 0.00 | 90 | 1013.1 |
| 20260507020403 | 55 | 0 | 0.0 | 0.0 | 0.00 | 0.90 | 0.00 | 90 | 1013.1 |
| 20260507020303 | 55 | 0 | 0.0 | 0.0 | 0.00 | 0.90 | 0.00 | 90 | 1013.0 |
| 20260507020203 | 55 | 0 | 0.0 | 0.0 | 0.00 | 0.90 | 0.00 | 90 | 1013.1 |
| 20260507020003 | 55 | 0 | 0.0 | 0.0 | 0.00 | 0.90 | 0.00 | 90 | 1013.0 |
| 20260507015903 | 55 | 0 | 0.0 | 0.0 | 0.00 | 0.90 | 0.00 | 90 | 1013.0 |
| 20260507015803 | 55 | 0 | 0.0 | 0.0 | 0.00 | 0.90 | 0.00 | 90 | 1013.0 |
| 20260507015703 | 55 | 0 | 0.0 | 0.0 | 0.00 | 0.91 | 0.00 | 90 | 1013.0 |
| 20260507015603 | 55 | 0 | 0.0 | 0.0 | 0.00 | 0.91 | 0.00 | 90 | 1013.0 |
| 20260507015503 | 55 | 0 | 0.0 | 0.0 | 0.00 | 0.91 | 0.00 | 90 | 1013.0 |
| 20260507015403 | 55 | 0 | 0.0 | 0.0 | 0.00 | 0.91 | 0.00 | 90 | 1013.0 |
| 20260507015306 | 55 | 0 | 0.0 | 0.0 | 0.00 | 0.91 | 0.00 | 90 | 1013.0 |
| 20260507015203 | 55 | 0 | 0.0 | 0.0 | 0.00 | 0.91 | 0.00 | 90 | 1013.0 |
| 20260507015104 | 55 | 0 | 0.0 | 0.0 | 0.00 | 0.91 | 0.00 | 90 | 1012.9 |
| 20260507015003 | 55 | 0 | 0.0 | 0.0 | 0.00 | 0.91 | 0.00 | 90 | 1012.9 |
| 20260507014903 | 55 | 0 | 0.0 | 0.0 | 0.00 | 0.92 | 0.00 | 90 | 1012.9 |
| 20260507014803 | 55 | 0 | 0.0 | 0.0 | 0.00 | 0.93 | 0.00 | 90 | 1012.9 |
| 20260507014703 | 55 | 0 | 0.0 | 0.0 | 0.00 | 0.94 | 0.00 | 90 | 1012.9 |
| 20260507014603 | 55 | 0 | 0.0 | 0.0 | 0.00 | 0.96 | 0.00 | 90 | 1012.8 |
| 20260507014503 | 55 | 0 | 0.0 | 0.0 | 0.00 | 0.96 | 0.00 | 90 | 1012.9 |
| 20260507014403 | 55 | 0 | 0.0 | 0.0 | 0.00 | 0.96 | 0.00 | 90 | 1012.9 |
| 20260507014303 | 55 | 0 | 0.0 | 0.0 | 0.00 | 0.96 | 0.00 | 90 | 1012.9 |
| 20260507014204 | 55 | 0 | 0.0 | 0.0 | 0.00 | 0.96 | 0.00 | 90 | 1012.9 |
| 20260507014103 | 55 | 0 | 0.0 | 0.0 | 0.00 | 0.96 | 0.00 | 90 | 1012.8 |
| 20260507014003 | 55 | 0 | 0.0 | 0.0 | 0.00 | 0.97 | 0.00 | 90 | 1012.9 |
| 20260507013904 | 55 | 0 | 0.0 | 0.0 | 0.00 | 0.97 | 0.00 | 90 | 1012.9 |
| 20260507013803 | 55 | 0 | 0.0 | 0.0 | 0.00 | 0.98 | 0.00 | 90 | 1012.9 |
| 20260507013703 | 55 | 0 | 0.0 | 0.0 | 0.00 | 0.99 | 0.00 | 90 | 1012.9 |
| 20260507013603 | 55 | 0 | 0.0 | 0.0 | 0.00 | 1.00 | 0.00 | 90 | 1012.9 |
| 20260507013503 | 55 | 0 | 0.0 | 0.0 | 0.00 | 1.01 | 0.00 | 90 | 1012.9 |
| 20260507013403 | 55 | 0 | 0.0 | 0.0 | 0.00 | 1.01 | 0.00 | 90 | 1013.0 |
| 20260507013303 | 55 | 0 | 0.0 | 0.0 | 0.00 | 1.01 | 0.00 | 90 | 1013.0 |
| 20260507013203 | 56 | 0 | 0.0 | 0.0 | 0.00 | 1.01 | 0.00 | 90 | 1013.0 |
| 20260507013103 | 56 | 0 | 0.0 | 0.0 | 0.00 | 1.01 | 0.00 | 90 | 1013.0 |
| 20260507013003 | 56 | 0 | 0.0 | 0.0 | 0.00 | 1.01 | 0.00 | 90 | 1013.0 |
| 20260507012903 | 56 | 0 | 0.0 | 0.0 | 0.00 | 1.01 | 0.00 | 90 | 1013.0 |
| 20260507012803 | 56 | 0 | 0.0 | 0.0 | 0.00 | 1.01 | 0.00 | 90 | 1013.0 |
| 20260507012703 | 56 | 0 | 0.0 | 0.0 | 0.00 | 1.01 | 0.00 | 90 | 1013.0 |
| 20260507012603 | 56 | 0 | 0.0 | 0.0 | 0.00 | 1.02 | 0.00 | 90 | 1013.1 |
| 20260507012503 | 56 | 0 | 0.0 | 0.0 | 0.00 | 1.03 | 0.00 | 90 | 1013.1 |
| 20260507012403 | 56 | 0 | 0.0 | 0.0 | 0.00 | 1.05 | 0.00 | 90 | 1013.1 |
| 20260507012306 | 56 | 0 | 0.0 | 0.0 | 0.00 | 1.06 | 0.00 | 90 | 1013.1 |
| 20260507012203 | 56 | 0 | 0.0 | 0.0 | 0.00 | 1.06 | 0.00 | 90 | 1013.1 |
| 20260507012103 | 56 | 0 | 0.0 | 0.0 | 0.00 | 1.06 | 0.00 | 90 | 1013.1 |
| 20260507012003 | 56 | 0 | 0.0 | 0.0 | 0.00 | 1.07 | 0.00 | 90 | 1013.1 |
| 20260507011903 | 56 | 0 | 0.0 | 0.0 | 0.00 | 1.08 | 0.00 | 90 | 1013.1 |
| 20260507011803 | 56 | 0 | 0.0 | 0.0 | 0.00 | 1.08 | 0.00 | 90 | 1013.1 |
| 20260507011703 | 56 | 0 | 0.0 | 0.0 | 0.00 | 1.08 | 0.00 | 90 | 1013.1 |
| 20260507011603 | 56 | 0 | 0.0 | 0.0 | 0.00 | 1.08 | 0.00 | 90 | 1013.1 |
| 20260507011503 | 56 | 0 | 0.0 | 0.0 | 0.00 | 1.08 | 0.00 | 90 | 1013.1 |
| 20260507011403 | 56 | 0 | 0.0 | 0.0 | 0.00 | 1.08 | 0.00 | 90 | 1013.1 |
| 20260507011303 | 56 | 0 | 0.0 | 0.0 | 0.00 | 1.08 | 0.00 | 90 | 1013.1 |
| 20260507011203 | 56 | 0 | 0.0 | 0.0 | 0.00 | 1.08 | 0.00 | 90 | 1013.1 |
| 20260507011103 | 56 | 0 | 0.0 | 0.0 | 0.00 | 1.08 | 0.00 | 90 | 1013.1 |
| 20260507011003 | 56 | 0 | 0.0 | 0.0 | 0.00 | 1.08 | 0.00 | 90 | 1013.1 |
| 20260507010903 | 56 | 0 | 0.0 | 0.0 | 0.00 | 1.08 | 0.00 | 90 | 1013.1 |
| 20260507010803 | 56 | 0 | 0.0 | 0.0 | 0.00 | 1.08 | 0.00 | 89 | 1013.2 |
| 20260507010703 | 56 | 0 | 0.0 | 0.0 | 0.00 | 1.08 | 0.00 | 89 | 1013.1 |
| 20260507010603 | 56 | 0 | 0.0 | 0.0 | 0.00 | 1.08 | 0.00 | 89 | 1013.1 |
| 20260507010503 | 56 | 0 | 0.0 | 0.0 | 0.00 | 1.08 | 0.00 | 89 | 1013.1 |
| 20260507010403 | 56 | 0 | 0.0 | 0.0 | 0.00 | 1.08 | 0.00 | 89 | 1013.1 |
| 20260507010303 | 56 | 0 | 0.0 | 0.0 | 0.00 | 1.08 | 0.00 | 89 | 1013.1 |
| 20260507010203 | 56 | 0 | 0.0 | 0.0 | 0.00 | 1.08 | 0.00 | 89 | 1013.2 |
| 20260507010004 | 56 | 0 | 0.0 | 0.0 | 0.00 | 1.08 | 0.00 | 89 | 1013.1 |
| 20260507005903 | 56 | 0 | 0.0 | 0.0 | 0.00 | 1.08 | 0.00 | 89 | 1013.1 |
| 20260507005803 | 56 | 0 | 0.0 | 0.0 | 0.00 | 1.08 | 0.00 | 89 | 1013.2 |
| 20260507005703 | 56 | 0 | 0.0 | 0.0 | 0.00 | 1.08 | 0.00 | 89 | 1013.2 |
| 20260507005603 | 56 | 0 | 0.0 | 0.0 | 0.00 | 1.08 | 0.00 | 89 | 1013.1 |
| 20260507005503 | 56 | 0 | 0.0 | 0.0 | 0.00 | 1.08 | 0.00 | 89 | 1013.1 |
| 20260507005403 | 56 | 0 | 0.0 | 0.0 | 0.00 | 1.08 | 0.00 | 89 | 1013.1 |
| 20260507005305 | 57 | 0 | 0.0 | 0.0 | 0.00 | 1.08 | 0.00 | 89 | 1013.1 |
| 20260507005203 | 57 | 0 | 0.0 | 0.0 | 0.00 | 1.08 | 0.00 | 89 | 1013.1 |
| 20260507005103 | 57 | 0 | 0.0 | 0.0 | 0.00 | 1.08 | 0.00 | 89 | 1013.1 |
| 20260507005003 | 57 | 0 | 0.0 | 0.0 | 0.00 | 1.08 | 0.00 | 89 | 1013.0 |
| 20260507004903 | 57 | 0 | 0.0 | 0.0 | 0.00 | 1.08 | 0.00 | 89 | 1013.1 |
| 20260507004803 | 57 | 0 | 0.0 | 0.0 | 0.00 | 1.08 | 0.00 | 89 | 1013.1 |
| 20260507004704 | 57 | 0 | 0.0 | 0.0 | 0.00 | 1.08 | 0.00 | 89 | 1013.1 |
| 20260507004603 | 57 | 0 | 0.0 | 0.0 | 0.00 | 1.08 | 0.00 | 90 | 1013.1 |
| 20260507004503 | 57 | 0 | 0.0 | 0.0 | 0.00 | 1.08 | 0.00 | 90 | 1013.1 |
| 20260507004403 | 57 | 0 | 0.0 | 0.0 | 0.00 | 1.08 | 0.00 | 90 | 1013.1 |
| 20260507004303 | 57 | 0 | 0.0 | 0.0 | 0.00 | 1.08 | 0.00 | 90 | 1013.1 |
| 20260507004203 | 57 | 0 | 0.0 | 0.0 | 0.00 | 1.08 | 0.00 | 90 | 1013.1 |
| 20260507004103 | 57 | 0 | 0.0 | 0.0 | 0.00 | 1.08 | 0.00 | 90 | 1013.1 |
| 20260507004003 | 57 | 0 | 0.0 | 0.0 | 0.00 | 1.08 | 0.00 | 90 | 1013.1 |
| 20260507003903 | 57 | 0 | 0.0 | 0.0 | 0.00 | 1.08 | 0.00 | 90 | 1013.1 |
| 20260507003803 | 57 | 0 | 0.0 | 0.0 | 0.00 | 1.08 | 0.00 | 90 | 1013.0 |
| 20260507003703 | 57 | 0 | 0.0 | 0.0 | 0.00 | 1.08 | 0.00 | 90 | 1013.1 |
| 20260507003603 | 57 | 0 | 0.0 | 0.0 | 0.00 | 1.08 | 0.00 | 90 | 1013.1 |
| 20260507003503 | 57 | 0 | 0.0 | 0.0 | 0.00 | 1.08 | 0.00 | 90 | 1013.0 |
| 20260507003403 | 57 | 0 | 0.0 | 0.0 | 0.00 | 1.08 | 0.00 | 90 | 1013.0 |
| 20260507003303 | 57 | 0 | 0.0 | 0.0 | 0.00 | 1.08 | 0.00 | 90 | 1013.0 |
| 20260507003203 | 57 | 0 | 0.0 | 0.0 | 0.00 | 1.08 | 0.00 | 90 | 1013.0 |
| 20260507003103 | 57 | 0 | 0.0 | 0.0 | 0.00 | 1.08 | 0.00 | 90 | 1013.1 |
| 20260507003003 | 57 | 0 | 0.0 | 0.0 | 0.00 | 1.08 | 0.00 | 90 | 1013.0 |
| 20260507002903 | 57 | 0 | 0.0 | 0.0 | 0.00 | 1.08 | 0.00 | 90 | 1013.0 |
| 20260507002803 | 57 | 0 | 0.0 | 0.0 | 0.00 | 1.08 | 0.00 | 90 | 1013.1 |
| 20260507002703 | 57 | 0 | 0.0 | 0.0 | 0.00 | 1.08 | 0.00 | 90 | 1013.0 |
| 20260507002603 | 57 | 0 | 0.0 | 0.0 | 0.00 | 1.08 | 0.00 | 90 | 1013.0 |
| 20260507002503 | 57 | 0 | 0.0 | 0.0 | 0.00 | 1.08 | 0.00 | 90 | 1013.0 |
| 20260507002403 | 57 | 0 | 0.0 | 0.0 | 0.00 | 1.08 | 0.00 | 90 | 1013.0 |
| 20260507002306 | 57 | 0 | 0.0 | 0.0 | 0.00 | 1.08 | 0.00 | 90 | 1013.0 |
| 20260507002203 | 57 | 0 | 0.0 | 0.0 | 0.00 | 1.08 | 0.00 | 90 | 1013.0 |
| 20260507002103 | 57 | 0 | 0.0 | 0.0 | 0.00 | 1.08 | 0.00 | 90 | 1013.0 |
| 20260507002003 | 57 | 0 | 0.0 | 0.0 | 0.00 | 1.08 | 0.00 | 90 | 1013.0 |
| 20260507001903 | 57 | 0 | 0.0 | 0.0 | 0.00 | 1.09 | 0.00 | 90 | 1013.0 |
| 20260507001803 | 57 | 0 | 0.0 | 0.0 | 0.00 | 1.09 | 0.00 | 90 | 1013.0 |
| 20260507001703 | 57 | 0 | 0.0 | 0.0 | 0.00 | 1.09 | 0.00 | 90 | 1013.0 |
| 20260507001603 | 57 | 0 | 0.0 | 0.0 | 0.00 | 1.09 | 0.00 | 90 | 1013.0 |
| 20260507001503 | 57 | 0 | 0.0 | 0.0 | 0.00 | 1.09 | 0.00 | 90 | 1013.0 |
| 20260507001403 | 57 | 0 | 0.0 | 0.0 | 0.00 | 1.09 | 0.00 | 90 | 1013.0 |
| 20260507001303 | 57 | 0 | 0.0 | 0.0 | 0.00 | 1.09 | 0.00 | 90 | 1013.0 |
| 20260507001203 | 57 | 0 | 0.0 | 0.0 | 0.00 | 1.09 | 0.00 | 90 | 1013.0 |
| 20260507001103 | 57 | 0 | 0.0 | 0.0 | 0.00 | 1.09 | 0.00 | 90 | 1013.0 |
| 20260507001003 | 57 | 0 | 0.0 | 0.0 | 0.00 | 1.09 | 0.00 | 90 | 1013.0 |
| 20260507000903 | 57 | 0 | 0.0 | 0.0 | 0.00 | 1.09 | 0.00 | 90 | 1013.0 |
| 20260507000803 | 57 | 0 | 0.0 | 0.0 | 0.00 | 1.09 | 0.00 | 90 | 1013.0 |
| 20260507000703 | 57 | 0 | 0.0 | 0.0 | 0.00 | 1.09 | 0.00 | 90 | 1013.0 |
| 20260507000603 | 57 | 0 | 0.0 | 0.0 | 0.00 | 1.09 | 0.00 | 90 | 1013.0 |
| 20260507000503 | 57 | 0 | 0.0 | 0.0 | 0.00 | 1.09 | 0.00 | 90 | 1013.0 |
| 20260507000405 | 57 | 0 | 0.0 | 0.0 | 0.00 | 1.09 | 0.00 | 90 | 1013.0 |
| 20260507000303 | 57 | 0 | 0.0 | 0.0 | 0.00 | 1.09 | 0.00 | 90 | 1013.0 |
| 20260507000205 | 57 | 0 | 0.0 | 0.0 | 0.00 | 1.09 | 0.00 | 90 | 1013.0 |
| 20260507000004 | 57 | 0 | 0.0 | 0.0 | 0.00 | 1.09 | 0.00 | 90 | 1013.0 |
| 20260506235903 | 57 | 0 | 0.0 | 0.0 | 0.00 | 1.09 | 0.00 | 90 | 1013.0 |
| 20260506235803 | 57 | 0 | 0.0 | 0.0 | 0.00 | 1.09 | 0.00 | 90 | 1013.0 |
| 20260506235703 | 57 | 0 | 0.0 | 0.0 | 0.00 | 1.09 | 0.00 | 90 | 1013.1 |
| 20260506235603 | 57 | 0 | 0.0 | 0.0 | 0.00 | 1.09 | 0.00 | 90 | 1013.1 |
| 20260506235503 | 57 | 0 | 0.0 | 0.0 | 0.00 | 1.09 | 0.00 | 90 | 1013.1 |
| 20260506235403 | 57 | 0 | 0.0 | 0.0 | 0.00 | 1.09 | 0.00 | 90 | 1013.1 |
| 20260506235306 | 57 | 0 | 0.0 | 0.0 | 0.00 | 1.09 | 0.00 | 90 | 1013.1 |
| 20260506235203 | 57 | 0 | 0.0 | 0.0 | 0.00 | 1.09 | 0.00 | 90 | 1013.1 |
| 20260506235103 | 57 | 0 | 0.0 | 0.0 | 0.00 | 1.09 | 0.00 | 90 | 1013.1 |
| 20260506235003 | 57 | 0 | 0.0 | 0.0 | 0.00 | 1.09 | 0.00 | 90 | 1013.1 |
| 20260506234903 | 57 | 0 | 0.0 | 0.0 | 0.00 | 1.10 | 0.00 | 90 | 1013.1 |
| 20260506234804 | 57 | 0 | 0.0 | 0.0 | 0.00 | 1.10 | 0.00 | 90 | 1013.1 |
| 20260506234703 | 57 | 0 | 0.0 | 0.0 | 0.00 | 1.10 | 0.00 | 90 | 1013.1 |
| 20260506234603 | 57 | 0 | 0.0 | 0.0 | 0.00 | 1.10 | 0.00 | 90 | 1013.1 |
| 20260506234503 | 57 | 0 | 0.0 | 0.0 | 0.00 | 1.10 | 0.00 | 90 | 1013.1 |
| 20260506234404 | 57 | 0 | 0.0 | 0.0 | 0.00 | 1.10 | 0.00 | 90 | 1013.1 |
| 20260506234303 | 57 | 0 | 0.0 | 0.0 | 0.00 | 1.10 | 0.00 | 90 | 1013.2 |
| 20260506234203 | 57 | 0 | 0.0 | 0.0 | 0.00 | 1.10 | 0.00 | 90 | 1013.2 |
| 20260506234103 | 57 | 0 | 0.0 | 0.0 | 0.00 | 1.10 | 0.00 | 90 | 1013.2 |
| 20260506234003 | 57 | 0 | 0.0 | 0.0 | 0.00 | 1.10 | 0.00 | 90 | 1013.2 |
| 20260506233903 | 57 | 0 | 0.0 | 0.0 | 0.00 | 1.10 | 0.00 | 90 | 1013.1 |
| 20260506233803 | 57 | 0 | 0.0 | 0.0 | 0.00 | 1.10 | 0.00 | 90 | 1013.1 |
| 20260506233703 | 57 | 0 | 0.0 | 0.0 | 0.00 | 1.10 | 0.00 | 90 | 1013.2 |
| 20260506233603 | 57 | 0 | 0.0 | 0.0 | 0.00 | 1.11 | 0.00 | 90 | 1013.2 |
| 20260506233503 | 57 | 0 | 0.0 | 0.0 | 0.00 | 1.11 | 0.00 | 90 | 1013.2 |
| 20260506233403 | 57 | 0 | 0.0 | 0.0 | 0.00 | 1.11 | 0.00 | 90 | 1013.2 |
| 20260506233303 | 57 | 0 | 0.0 | 0.0 | 0.00 | 1.11 | 0.00 | 90 | 1013.2 |
| 20260506233203 | 57 | 0 | 0.0 | 0.0 | 0.00 | 1.11 | 0.00 | 90 | 1013.2 |
| 20260506233103 | 57 | 0 | 0.0 | 0.0 | 0.00 | 1.11 | 0.00 | 90 | 1013.2 |
| 20260506233003 | 57 | 0 | 0.0 | 0.0 | 0.00 | 1.11 | 0.00 | 90 | 1013.2 |
| 20260506232903 | 57 | 0 | 0.0 | 0.0 | 0.00 | 1.11 | 0.00 | 90 | 1013.2 |
| 20260506232803 | 57 | 0 | 0.0 | 0.0 | 0.00 | 1.11 | 0.00 | 90 | 1013.2 |
| 20260506232703 | 57 | 0 | 0.0 | 0.0 | 0.00 | 1.11 | 0.00 | 90 | 1013.3 |
| 20260506232603 | 57 | 0 | 0.0 | 0.0 | 0.00 | 1.11 | 0.00 | 90 | 1013.3 |
| 20260506232503 | 57 | 0 | 0.0 | 0.0 | 0.00 | 1.11 | 0.00 | 90 | 1013.3 |
| 20260506232403 | 57 | 0 | 0.0 | 0.0 | 0.00 | 1.11 | 0.00 | 90 | 1013.3 |
| 20260506232306 | 56 | 0 | 0.0 | 0.0 | 0.00 | 1.11 | 0.00 | 90 | 1013.3 |
| 20260506232203 | 56 | 0 | 0.0 | 0.0 | 0.00 | 1.12 | 0.00 | 90 | 1013.3 |
| 20260506232103 | 56 | 0 | 0.0 | 0.0 | 0.00 | 1.12 | 0.00 | 90 | 1013.3 |
| 20260506232004 | 56 | 0 | 0.0 | 0.0 | 0.00 | 1.12 | 0.00 | 90 | 1013.3 |
| 20260506231903 | 56 | 0 | 0.0 | 0.0 | 0.00 | 1.12 | 0.00 | 90 | 1013.3 |
| 20260506231803 | 56 | 0 | 0.0 | 0.0 | 0.00 | 1.12 | 0.00 | 90 | 1013.2 |
| 20260506231703 | 56 | 0 | 0.0 | 0.0 | 0.00 | 1.12 | 0.00 | 90 | 1013.2 |
| 20260506231603 | 56 | 0 | 0.0 | 0.0 | 0.00 | 1.12 | 0.00 | 90 | 1013.2 |
| 20260506231503 | 56 | 0 | 0.0 | 0.0 | 0.00 | 1.12 | 0.00 | 90 | 1013.2 |
| 20260506231003 | 56 | 0 | 0.0 | 0.0 | 0.00 | 1.13 | 0.00 | 90 | 1013.2 |
| 20260506230903 | 56 | 0 | 0.0 | 0.0 | 0.00 | 1.13 | 0.00 | 90 | 1013.2 |
| 20260506230803 | 56 | 0 | 0.0 | 0.0 | 0.00 | 1.13 | 0.00 | 90 | 1013.2 |
| 20260506230703 | 56 | 0 | 0.0 | 0.0 | 0.00 | 1.13 | 0.00 | 90 | 1013.2 |
| 20260506230603 | 56 | 0 | 0.0 | 0.0 | 0.00 | 1.13 | 0.00 | 90 | 1013.2 |
| 20260506230503 | 56 | 0 | 0.0 | 0.0 | 0.00 | 1.13 | 0.00 | 89 | 1013.2 |
| 20260506230403 | 56 | 0 | 0.0 | 0.0 | 0.00 | 1.13 | 0.00 | 89 | 1013.2 |
| 20260506230303 | 56 | 0 | 0.0 | 0.0 | 0.00 | 1.13 | 0.00 | 89 | 1013.2 |
| 20260506230203 | 56 | 0 | 0.0 | 0.0 | 0.00 | 1.13 | 0.00 | 89 | 1013.1 |
| 20260506230103 | 56 | 0 | 0.0 | 0.0 | 0.00 | 1.13 | 0.00 | 89 | 1013.2 |
| 20260506230004 | 56 | 0 | 0.0 | 0.0 | 0.00 | 1.13 | 0.00 | 89 | 1013.2 |
| 20260506225903 | 56 | 0 | 0.0 | 0.0 | 0.00 | 1.13 | 0.00 | 89 | 1013.2 |
| 20260506225803 | 56 | 0 | 0.0 | 0.0 | 0.00 | 1.13 | 0.00 | 89 | 1013.2 |
| 20260506225703 | 56 | 0 | 0.0 | 0.0 | 0.00 | 1.13 | 0.00 | 89 | 1013.2 |
| 20260506225603 | 56 | 0 | 0.0 | 0.0 | 0.00 | 1.13 | 0.00 | 89 | 1013.2 |
| 20260506225503 | 56 | 0 | 0.0 | 0.0 | 0.00 | 1.13 | 0.00 | 89 | 1013.2 |
| 20260506225403 | 56 | 0 | 0.0 | 0.0 | 0.00 | 1.13 | 0.00 | 89 | 1013.2 |
| 20260506225305 | 56 | 0 | 0.0 | 0.0 | 0.00 | 1.13 | 0.00 | 89 | 1013.2 |
| 20260506225203 | 56 | 0 | 0.0 | 0.0 | 0.00 | 1.13 | 0.00 | 89 | 1013.2 |
| 20260506225103 | 56 | 0 | 0.0 | 0.0 | 0.00 | 1.13 | 0.00 | 89 | 1013.2 |
| 20260506225003 | 56 | 0 | 0.0 | 0.0 | 0.00 | 1.13 | 0.00 | 89 | 1013.2 |
| 20260506224903 | 56 | 0 | 0.0 | 0.0 | 0.00 | 1.13 | 0.00 | 89 | 1013.2 |
| 20260506224803 | 56 | 0 | 0.0 | 0.0 | 0.00 | 1.13 | 0.00 | 89 | 1013.2 |
| 20260506224703 | 56 | 0 | 0.0 | 0.0 | 0.00 | 1.13 | 0.00 | 89 | 1013.2 |
| 20260506224603 | 56 | 0 | 0.0 | 0.0 | 0.00 | 1.13 | 0.00 | 89 | 1013.2 |
| 20260506224503 | 56 | 0 | 0.0 | 0.0 | 0.00 | 1.13 | 0.00 | 89 | 1013.1 |
| 20260506224403 | 56 | 0 | 0.0 | 0.0 | 0.00 | 1.13 | 0.00 | 89 | 1013.2 |
| 20260506224303 | 56 | 0 | 0.0 | 0.0 | 0.00 | 1.13 | 0.00 | 89 | 1013.2 |
| 20260506224203 | 56 | 0 | 0.0 | 0.0 | 0.00 | 1.13 | 0.00 | 89 | 1013.1 |
| 20260506224103 | 56 | 0 | 0.0 | 0.0 | 0.00 | 1.13 | 0.00 | 89 | 1013.1 |
| 20260506224003 | 56 | 0 | 0.0 | 0.0 | 0.00 | 1.13 | 0.00 | 90 | 1013.1 |
| 20260506223903 | 56 | 0 | 0.0 | 0.0 | 0.00 | 1.13 | 0.00 | 90 | 1013.1 |
| 20260506223803 | 56 | 0 | 0.0 | 0.0 | 0.00 | 1.13 | 0.00 | 90 | 1013.1 |
| 20260506223703 | 56 | 0 | 0.0 | 0.0 | 0.00 | 1.13 | 0.00 | 90 | 1013.1 |
| 20260506223603 | 56 | 0 | 0.0 | 0.0 | 0.00 | 1.13 | 0.00 | 90 | 1013.1 |
| 20260506223503 | 56 | 0 | 0.0 | 0.0 | 0.00 | 1.13 | 0.00 | 90 | 1013.0 |
| 20260506223403 | 56 | 0 | 0.0 | 0.0 | 0.00 | 1.13 | 0.00 | 90 | 1013.1 |
| 20260506223303 | 56 | 0 | 0.0 | 0.0 | 0.00 | 1.13 | 0.00 | 90 | 1013.1 |
| 20260506223203 | 56 | 0 | 0.0 | 0.0 | 0.00 | 1.13 | 0.00 | 90 | 1013.1 |
| 20260506223103 | 56 | 0 | 0.0 | 0.0 | 0.00 | 1.13 | 0.00 | 90 | 1013.1 |
| 20260506223003 | 56 | 0 | 0.0 | 0.0 | 0.00 | 1.13 | 0.00 | 90 | 1013.1 |
| 20260506222903 | 56 | 0 | 0.0 | 0.0 | 0.00 | 1.13 | 0.00 | 90 | 1013.1 |
| 20260506222803 | 56 | 0 | 0.0 | 0.0 | 0.00 | 1.13 | 0.00 | 90 | 1013.1 |
| 20260506222703 | 56 | 0 | 0.0 | 0.0 | 0.00 | 1.13 | 0.00 | 90 | 1013.2 |
| 20260506222603 | 56 | 0 | 0.0 | 0.0 | 0.00 | 1.13 | 0.00 | 90 | 1013.2 |
| 20260506222503 | 56 | 0 | 0.0 | 0.0 | 0.00 | 1.13 | 0.00 | 90 | 1013.2 |
| 20260506222403 | 56 | 0 | 0.0 | 0.0 | 0.00 | 1.13 | 0.00 | 90 | 1013.1 |
| 20260506222305 | 56 | 0 | 0.0 | 0.0 | 0.00 | 1.13 | 0.00 | 90 | 1013.1 |
| 20260506222203 | 56 | 0 | 0.0 | 0.0 | 0.00 | 1.13 | 0.00 | 90 | 1013.1 |
| 20260506222103 | 56 | 0 | 0.0 | 0.0 | 0.00 | 1.13 | 0.00 | 90 | 1013.1 |
| 20260506222003 | 56 | 0 | 0.0 | 0.0 | 0.00 | 1.13 | 0.00 | 90 | 1013.2 |
| 20260506221903 | 56 | 0 | 0.0 | 0.0 | 0.00 | 1.13 | 0.00 | 90 | 1013.1 |
| 20260506221803 | 56 | 0 | 0.0 | 0.0 | 0.00 | 1.13 | 0.00 | 90 | 1013.2 |
| 20260506221703 | 56 | 0 | 0.0 | 0.0 | 0.00 | 1.13 | 0.00 | 90 | 1013.2 |
| 20260506221603 | 56 | 0 | 0.0 | 0.0 | 0.00 | 1.13 | 0.00 | 90 | 1013.1 |
| 20260506221504 | 56 | 0 | 0.0 | 0.0 | 0.00 | 1.13 | 0.00 | 90 | 1013.2 |
| 20260506221403 | 56 | 0 | 0.0 | 0.0 | 0.00 | 1.13 | 0.00 | 90 | 1013.2 |
| 20260506221303 | 56 | 0 | 0.0 | 0.0 | 0.00 | 1.13 | 0.00 | 90 | 1013.2 |
| 20260506221203 | 56 | 0 | 0.0 | 0.0 | 0.00 | 1.13 | 0.00 | 90 | 1013.2 |
| 20260506221103 | 56 | 0 | 0.0 | 0.0 | 0.00 | 1.13 | 0.00 | 90 | 1013.2 |
| 20260506221003 | 56 | 0 | 0.0 | 0.0 | 0.00 | 1.13 | 0.00 | 90 | 1013.2 |
| 20260506220904 | 56 | 0 | 0.0 | 0.0 | 0.00 | 1.13 | 0.00 | 90 | 1013.2 |
| 20260506220803 | 56 | 0 | 0.0 | 0.0 | 0.00 | 1.13 | 0.00 | 90 | 1013.2 |
| 20260506220703 | 56 | 0 | 0.0 | 0.0 | 0.00 | 1.13 | 0.00 | 90 | 1013.2 |
| 20260506220603 | 56 | 0 | 0.0 | 0.0 | 0.00 | 1.13 | 0.00 | 90 | 1013.2 |
| 20260506220503 | 56 | 0 | 0.0 | 0.0 | 0.00 | 1.13 | 0.00 | 90 | 1013.2 |
| 20260506220403 | 56 | 0 | 0.0 | 0.0 | 0.00 | 1.13 | 0.00 | 90 | 1013.2 |
| 20260506220303 | 56 | 0 | 0.0 | 0.0 | 0.00 | 1.13 | 0.00 | 90 | 1013.2 |
| 20260506220203 | 56 | 0 | 0.0 | 0.0 | 0.00 | 1.13 | 0.00 | 90 | 1013.2 |
| 20260506220021 | 56 | 0 | 0.0 | 0.0 | 0.00 | 1.13 | 0.00 | 90 | 1013.2 |
| 20260506215904 | 56 | 0 | 0.0 | 0.0 | 0.00 | 1.13 | 1.13 | 90 | 1013.2 |
| 20260506215803 | 56 | 0 | 0.0 | 0.0 | 0.00 | 1.13 | 1.13 | 90 | 1013.2 |
| 20260506215703 | 56 | 0 | 0.0 | 0.0 | 0.00 | 1.13 | 1.13 | 90 | 1013.2 |
| 20260506215603 | 56 | 0 | 0.0 | 0.0 | 0.00 | 1.13 | 1.13 | 90 | 1013.2 |
| 20260506215503 | 56 | 0 | 0.0 | 0.0 | 0.00 | 1.13 | 1.13 | 90 | 1013.2 |
| 20260506215403 | 56 | 0 | 0.0 | 0.0 | 0.00 | 1.13 | 1.13 | 90 | 1013.2 |
| 20260506215306 | 56 | 0 | 0.0 | 0.0 | 0.00 | 1.13 | 1.13 | 90 | 1013.2 |
| 20260506215203 | 56 | 0 | 0.0 | 0.0 | 0.00 | 1.13 | 1.13 | 90 | 1013.2 |
| 20260506215103 | 56 | 0 | 0.0 | 0.0 | 0.00 | 1.13 | 1.13 | 90 | 1013.3 |
| 20260506215003 | 56 | 0 | 0.0 | 0.0 | 0.00 | 1.13 | 1.13 | 90 | 1013.2 |
| 20260506214903 | 56 | 0 | 0.0 | 0.0 | 0.00 | 1.13 | 1.13 | 90 | 1013.2 |
| 20260506214803 | 56 | 0 | 0.0 | 0.0 | 0.00 | 1.13 | 1.13 | 90 | 1013.2 |
| 20260506214703 | 56 | 0 | 0.0 | 0.0 | 0.00 | 1.13 | 1.13 | 90 | 1013.2 |
| 20260506214603 | 56 | 0 | 0.0 | 0.0 | 0.00 | 1.13 | 1.13 | 90 | 1013.3 |
| 20260506214503 | 56 | 0 | 0.0 | 0.0 | 0.00 | 1.13 | 1.13 | 90 | 1013.3 |
| 20260506214403 | 56 | 0 | 0.0 | 0.0 | 0.00 | 1.13 | 1.13 | 90 | 1013.3 |
| 20260506214303 | 56 | 0 | 0.0 | 0.0 | 0.00 | 1.13 | 1.13 | 90 | 1013.3 |
| 20260506214204 | 56 | 0 | 0.0 | 0.0 | 0.00 | 1.13 | 1.13 | 90 | 1013.3 |
| 20260506214103 | 56 | 0 | 0.0 | 0.0 | 0.00 | 1.13 | 1.13 | 90 | 1013.3 |
| 20260506214003 | 56 | 0 | 0.0 | 0.0 | 0.00 | 1.13 | 1.13 | 90 | 1013.3 |
| 20260506213903 | 56 | 0 | 0.0 | 0.0 | 0.00 | 1.13 | 1.13 | 90 | 1013.3 |
| 20260506213803 | 56 | 0 | 0.0 | 0.0 | 0.00 | 1.13 | 1.13 | 90 | 1013.3 |
| 20260506213703 | 56 | 0 | 0.0 | 0.0 | 0.00 | 1.13 | 1.13 | 90 | 1013.3 |
| 20260506213603 | 56 | 0 | 0.0 | 0.0 | 0.00 | 1.13 | 1.13 | 90 | 1013.3 |
| 20260506213503 | 56 | 0 | 0.0 | 0.0 | 0.00 | 1.13 | 1.13 | 90 | 1013.2 |
| 20260506213403 | 56 | 0 | 0.0 | 0.0 | 0.00 | 1.13 | 1.13 | 90 | 1013.2 |
| 20260506213303 | 56 | 0 | 0.0 | 0.0 | 0.00 | 1.13 | 1.13 | 90 | 1013.2 |
| 20260506213203 | 56 | 0 | 0.0 | 0.0 | 0.00 | 1.13 | 1.13 | 90 | 1013.2 |
| 20260506213103 | 56 | 0 | 0.0 | 0.0 | 0.00 | 1.13 | 1.13 | 90 | 1013.2 |
| 20260506213003 | 56 | 0 | 0.0 | 0.0 | 0.00 | 1.13 | 1.13 | 90 | 1013.3 |
| 20260506212903 | 56 | 0 | 0.0 | 0.0 | 0.00 | 1.13 | 1.13 | 90 | 1013.2 |
| 20260506212803 | 56 | 0 | 0.0 | 0.0 | 0.00 | 1.13 | 1.13 | 90 | 1013.2 |
| 20260506212703 | 56 | 0 | 0.0 | 0.0 | 0.00 | 1.13 | 1.13 | 90 | 1013.2 |
| 20260506212603 | 56 | 0 | 0.0 | 0.0 | 0.00 | 1.13 | 1.13 | 90 | 1013.2 |
| 20260506212503 | 56 | 0 | 0.0 | 0.0 | 0.00 | 1.13 | 1.13 | 90 | 1013.2 |
| 20260506212403 | 56 | 0 | 0.0 | 0.0 | 0.00 | 1.13 | 1.13 | 90 | 1013.3 |
| 20260506212306 | 56 | 0 | 0.0 | 0.0 | 0.00 | 1.13 | 1.13 | 90 | 1013.2 |
| 20260506212203 | 56 | 0 | 0.0 | 0.0 | 0.00 | 1.13 | 1.13 | 90 | 1013.2 |
| 20260506212103 | 56 | 0 | 0.0 | 0.0 | 0.00 | 1.13 | 1.13 | 90 | 1013.2 |
| 20260506212003 | 56 | 0 | 0.0 | 0.0 | 0.00 | 1.13 | 1.13 | 90 | 1013.2 |
| 20260506211903 | 56 | 0 | 0.0 | 0.0 | 0.00 | 1.13 | 1.13 | 90 | 1013.3 |
| 20260506211803 | 56 | 0 | 0.0 | 0.0 | 0.00 | 1.13 | 1.13 | 90 | 1013.2 |
| 20260506211703 | 56 | 0 | 0.0 | 0.0 | 0.00 | 1.13 | 1.13 | 90 | 1013.2 |
| 20260506211603 | 56 | 0 | 0.0 | 0.0 | 0.00 | 1.13 | 1.13 | 90 | 1013.2 |
| 20260506211503 | 56 | 0 | 0.0 | 0.0 | 0.00 | 1.13 | 1.13 | 90 | 1013.2 |
| 20260506211403 | 56 | 0 | 0.0 | 0.0 | 0.00 | 1.13 | 1.13 | 89 | 1013.2 |
| 20260506211303 | 56 | 0 | 0.0 | 0.0 | 0.00 | 1.13 | 1.13 | 89 | 1013.2 |
| 20260506211203 | 55 | 0 | 0.0 | 0.0 | 0.00 | 1.13 | 1.13 | 89 | 1013.2 |
| 20260506211103 | 55 | 0 | 0.0 | 0.0 | 0.00 | 1.13 | 1.13 | 89 | 1013.2 |
| 20260506211003 | 56 | 0 | 0.0 | 0.0 | 0.00 | 1.13 | 1.13 | 89 | 1013.2 |
| 20260506210903 | 55 | 0 | 0.0 | 0.0 | 0.00 | 1.13 | 1.13 | 89 | 1013.2 |
| 20260506210803 | 55 | 0 | 0.0 | 0.0 | 0.00 | 1.13 | 1.13 | 89 | 1013.2 |
| 20260506210703 | 55 | 0 | 0.0 | 0.0 | 0.00 | 1.13 | 1.13 | 89 | 1013.2 |
| 20260506210603 | 56 | 0 | 0.0 | 0.0 | 0.00 | 1.13 | 1.13 | 89 | 1013.2 |
| 20260506210503 | 56 | 0 | 0.0 | 0.0 | 0.00 | 1.13 | 1.13 | 89 | 1013.2 |
| 20260506210403 | 56 | 0 | 0.0 | 0.0 | 0.00 | 1.13 | 1.13 | 89 | 1013.2 |
| 20260506210303 | 55 | 0 | 0.0 | 0.0 | 0.00 | 1.13 | 1.13 | 89 | 1013.2 |
| 20260506210203 | 55 | 0 | 0.0 | 0.0 | 0.00 | 1.13 | 1.13 | 89 | 1013.2 |
| 20260506210103 | 55 | 0 | 0.0 | 0.0 | 0.00 | 1.13 | 1.13 | 89 | 1013.2 |
| 20260506210003 | 55 | 0 | 0.0 | 0.0 | 0.00 | 1.13 | 1.13 | 89 | 1013.2 |
| 20260506205903 | 55 | 0 | 0.0 | 0.0 | 0.00 | 1.13 | 1.13 | 89 | 1013.2 |
| 20260506205803 | 55 | 0 | 0.0 | 0.0 | 0.00 | 1.13 | 1.13 | 89 | 1013.2 |
| 20260506205703 | 55 | 0 | 0.0 | 0.0 | 0.00 | 1.13 | 1.13 | 89 | 1013.2 |
| 20260506205604 | 55 | 0 | 0.0 | 0.0 | 0.00 | 1.13 | 1.13 | 89 | 1013.2 |
| 20260506205503 | 56 | 0 | 0.0 | 0.0 | 0.00 | 1.13 | 1.13 | 89 | 1013.1 |
| 20260506205403 | 56 | 0 | 0.0 | 0.0 | 0.00 | 1.13 | 1.13 | 89 | 1013.1 |
| 20260506205305 | 56 | 0 | 0.0 | 0.0 | 0.00 | 1.13 | 1.13 | 89 | 1013.1 |
| 20260506205203 | 56 | 0 | 0.0 | 0.0 | 0.00 | 1.13 | 1.13 | 88 | 1013.1 |
| 20260506205103 | 56 | 0 | 0.0 | 0.0 | 0.00 | 1.13 | 1.13 | 89 | 1013.1 |
| 20260506205003 | 56 | 0 | 0.0 | 0.0 | 0.00 | 1.13 | 1.13 | 88 | 1013.1 |
| 20260506204903 | 56 | 0 | 0.0 | 0.0 | 0.00 | 1.13 | 1.13 | 89 | 1013.1 |
| 20260506204803 | 56 | 0 | 0.0 | 0.0 | 0.00 | 1.13 | 1.13 | 89 | 1013.1 |
| 20260506204703 | 56 | 0 | 0.0 | 0.0 | 0.00 | 1.13 | 1.13 | 89 | 1013.1 |
| 20260506204603 | 56 | 0 | 0.0 | 0.0 | 0.00 | 1.13 | 1.13 | 88 | 1013.0 |
| 20260506204503 | 56 | 0 | 0.0 | 0.0 | 0.00 | 1.13 | 1.13 | 88 | 1013.1 |
| 20260506204403 | 56 | 0 | 0.0 | 0.0 | 0.00 | 1.13 | 1.13 | 88 | 1013.1 |
| 20260506204303 | 56 | 0 | 0.0 | 0.0 | 0.00 | 1.13 | 1.13 | 88 | 1013.1 |
| 20260506204203 | 56 | 0 | 0.0 | 0.0 | 0.00 | 1.13 | 1.13 | 88 | 1013.1 |
| 20260506204103 | 56 | 0 | 0.0 | 0.0 | 0.00 | 1.13 | 1.13 | 88 | 1013.1 |
| 20260506204003 | 56 | 0 | 0.0 | 0.0 | 0.00 | 1.13 | 1.13 | 88 | 1013.1 |
| 20260506203903 | 56 | 0 | 0.0 | 0.0 | 0.00 | 1.13 | 1.13 | 88 | 1013.1 |
| 20260506203803 | 56 | 0 | 0.0 | 0.0 | 0.00 | 1.13 | 1.13 | 88 | 1013.1 |
| 20260506203703 | 56 | 0 | 0.0 | 0.0 | 0.00 | 1.13 | 1.13 | 88 | 1013.1 |
| 20260506203603 | 56 | 0 | 0.0 | 0.0 | 0.00 | 1.13 | 1.13 | 88 | 1013.1 |
| 20260506203503 | 56 | 0 | 0.0 | 0.0 | 0.00 | 1.13 | 1.13 | 88 | 1013.1 |
| 20260506203403 | 56 | 0 | 0.0 | 0.0 | 0.00 | 1.13 | 1.13 | 88 | 1013.1 |
| 20260506203303 | 56 | 0 | 0.0 | 0.0 | 0.00 | 1.13 | 1.13 | 88 | 1013.1 |
| 20260506203203 | 56 | 0 | 0.0 | 0.0 | 0.00 | 1.13 | 1.13 | 87 | 1013.1 |
| 20260506203103 | 56 | 0 | 0.0 | 0.0 | 0.00 | 1.13 | 1.13 | 87 | 1013.0 |
| 20260506203003 | 56 | 0 | 0.0 | 0.0 | 0.00 | 1.13 | 1.13 | 88 | 1013.0 |
| 20260506202903 | 56 | 0 | 0.0 | 0.0 | 0.00 | 1.13 | 1.13 | 88 | 1013.0 |
| 20260506202803 | 56 | 0 | 0.0 | 0.0 | 0.00 | 1.13 | 1.13 | 88 | 1013.0 |
| 20260506202703 | 56 | 0 | 0.0 | 0.0 | 0.00 | 1.13 | 1.13 | 87 | 1013.0 |
| 20260506202603 | 56 | 0 | 0.0 | 0.0 | 0.00 | 1.13 | 1.13 | 87 | 1013.0 |
| 20260506202503 | 56 | 0 | 0.0 | 0.0 | 0.00 | 1.13 | 1.13 | 87 | 1013.0 |
| 20260506202404 | 56 | 0 | 0.0 | 0.0 | 0.00 | 1.13 | 1.13 | 87 | 1013.0 |
| 20260506202306 | 56 | 0 | 0.0 | 0.0 | 0.00 | 1.13 | 1.13 | 87 | 1013.0 |
| 20260506202203 | 56 | 0 | 0.0 | 0.0 | 0.00 | 1.13 | 1.13 | 87 | 1012.9 |
| 20260506202103 | 56 | 0 | 0.0 | 0.0 | 0.00 | 1.13 | 1.13 | 87 | 1013.0 |
| 20260506202003 | 56 | 0 | 0.0 | 0.0 | 0.00 | 1.13 | 1.13 | 87 | 1012.9 |
| 20260506201903 | 56 | 0 | 0.0 | 0.0 | 0.00 | 1.13 | 1.13 | 87 | 1012.9 |
| 20260506201803 | 57 | 0 | 0.0 | 0.0 | 0.00 | 1.13 | 1.13 | 87 | 1013.0 |
| 20260506201703 | 57 | 0 | 0.0 | 0.0 | 0.00 | 1.13 | 1.13 | 87 | 1012.9 |
| 20260506201603 | 57 | 0 | 0.0 | 0.0 | 0.00 | 1.13 | 1.13 | 87 | 1012.9 |
| 20260506201503 | 57 | 0 | 0.0 | 0.0 | 0.00 | 1.13 | 1.13 | 87 | 1012.9 |
| 20260506201403 | 57 | 0 | 0.0 | 0.0 | 0.00 | 1.13 | 1.13 | 87 | 1012.9 |
| 20260506201303 | 57 | 0 | 0.0 | 0.0 | 0.00 | 1.13 | 1.13 | 87 | 1012.9 |
| 20260506201203 | 57 | 0 | 0.0 | 0.0 | 0.00 | 1.13 | 1.13 | 87 | 1012.9 |
| 20260506201103 | 57 | 0 | 0.0 | 0.0 | 0.00 | 1.13 | 1.13 | 87 | 1012.8 |
| 20260506201003 | 57 | 0 | 0.0 | 0.0 | 0.00 | 1.13 | 1.13 | 87 | 1012.8 |
| 20260506200903 | 57 | 0 | 0.0 | 0.0 | 0.00 | 1.13 | 1.13 | 87 | 1012.9 |
| 20260506200803 | 57 | 0 | 0.0 | 0.0 | 0.00 | 1.13 | 1.13 | 86 | 1012.9 |
| 20260506200703 | 57 | 0 | 0.0 | 0.0 | 0.00 | 1.13 | 1.13 | 87 | 1012.9 |
| 20260506200603 | 57 | 0 | 0.0 | 0.0 | 0.00 | 1.13 | 1.13 | 86 | 1012.9 |
| 20260506200503 | 57 | 0 | 0.0 | 0.0 | 0.00 | 1.13 | 1.13 | 86 | 1012.9 |
| 20260506200403 | 57 | 0 | 0.0 | 0.0 | 0.00 | 1.13 | 1.13 | 86 | 1012.8 |
| 20260506200303 | 58 | 0 | 0.0 | 0.0 | 0.00 | 1.13 | 1.13 | 86 | 1012.8 |
| 20260506200203 | 58 | 0 | 0.0 | 0.0 | 0.00 | 1.13 | 1.13 | 86 | 1012.8 |
| 20260506200004 | 58 | 0 | 0.0 | 0.0 | 0.00 | 1.13 | 1.13 | 86 | 1012.8 |
| 20260506195903 | 58 | 0 | 0.0 | 0.0 | 0.00 | 1.13 | 1.13 | 86 | 1012.8 |
| 20260506195803 | 58 | 0 | 0.0 | 0.0 | 0.00 | 1.13 | 1.13 | 86 | 1012.7 |
| 20260506195703 | 58 | 0 | 0.0 | 0.0 | 0.00 | 1.13 | 1.13 | 86 | 1012.7 |
| 20260506195603 | 58 | 0 | 0.0 | 0.0 | 0.00 | 1.13 | 1.13 | 86 | 1012.7 |
| 20260506195503 | 58 | 0 | 0.0 | 0.0 | 0.00 | 1.13 | 1.13 | 86 | 1012.7 |
| 20260506195403 | 58 | 0 | 0.0 | 0.0 | 0.00 | 1.13 | 1.13 | 86 | 1012.7 |
| 20260506195306 | 58 | 0 | 0.0 | 0.0 | 0.00 | 1.13 | 1.13 | 86 | 1012.7 |
| 20260506195203 | 58 | 0 | 0.0 | 0.0 | 0.00 | 1.13 | 1.13 | 86 | 1012.6 |
| 20260506195103 | 58 | 0 | 0.0 | 0.0 | 0.00 | 1.13 | 1.13 | 86 | 1012.7 |
| 20260506195003 | 58 | 0 | 0.0 | 0.0 | 0.00 | 1.13 | 1.13 | 86 | 1012.6 |
| 20260506194903 | 58 | 0 | 0.0 | 0.0 | 0.00 | 1.13 | 1.13 | 86 | 1012.6 |
| 20260506194803 | 58 | 0 | 0.0 | 0.0 | 0.00 | 1.13 | 1.13 | 86 | 1012.7 |
| 20260506194703 | 58 | 0 | 0.0 | 0.0 | 0.00 | 1.13 | 1.13 | 86 | 1012.6 |
| 20260506194603 | 58 | 0 | 0.0 | 0.0 | 0.00 | 1.13 | 1.13 | 86 | 1012.6 |
| 20260506194503 | 58 | 0 | 0.0 | 0.0 | 0.00 | 1.13 | 1.13 | 86 | 1012.6 |
| 20260506194403 | 58 | 0 | 0.0 | 0.0 | 0.00 | 1.13 | 1.13 | 86 | 1012.6 |
| 20260506194303 | 59 | 0 | 0.0 | 0.0 | 0.00 | 1.13 | 1.13 | 86 | 1012.6 |
| 20260506194204 | 59 | 0 | 0.0 | 0.0 | 0.00 | 1.13 | 1.13 | 86 | 1012.5 |
| 20260506194103 | 59 | 0 | 0.0 | 0.0 | 0.00 | 1.13 | 1.13 | 86 | 1012.5 |
| 20260506194003 | 59 | 0 | 0.0 | 0.0 | 0.00 | 1.13 | 1.13 | 86 | 1012.5 |
| 20260506193903 | 59 | 0 | 0.0 | 0.0 | 0.00 | 1.13 | 1.13 | 86 | 1012.5 |
| 20260506193803 | 59 | 0 | 0.0 | 0.0 | 0.00 | 1.13 | 1.13 | 86 | 1012.5 |
| 20260506193703 | 59 | 0 | 0.0 | 0.0 | 0.00 | 1.13 | 1.13 | 86 | 1012.5 |
| 20260506193603 | 59 | 0 | 0.0 | 0.0 | 0.00 | 1.13 | 1.13 | 86 | 1012.5 |
| 20260506193505 | 59 | 0 | 0.0 | 0.0 | 0.00 | 1.13 | 1.13 | 85 | 1012.5 |
| 20260506193403 | 59 | 0 | 0.0 | 0.0 | 0.00 | 1.13 | 1.13 | 86 | 1012.5 |
| 20260506193303 | 59 | 0 | 0.0 | 0.0 | 0.00 | 1.13 | 1.13 | 86 | 1012.4 |
| 20260506193203 | 59 | 0 | 0.0 | 0.0 | 0.00 | 1.13 | 1.13 | 86 | 1012.4 |
| 20260506193103 | 59 | 0 | 0.0 | 0.0 | 0.00 | 1.13 | 1.13 | 86 | 1012.4 |
| 20260506193003 | 59 | 0 | 0.0 | 0.0 | 0.00 | 1.13 | 1.13 | 86 | 1012.4 |
| 20260506192903 | 59 | 0 | 0.0 | 0.0 | 0.00 | 1.13 | 1.13 | 86 | 1012.4 |
| 20260506192803 | 59 | 0 | 0.0 | 0.0 | 0.00 | 1.13 | 1.13 | 86 | 1012.4 |
| 20260506192703 | 59 | 0 | 0.0 | 0.0 | 0.00 | 1.13 | 1.13 | 86 | 1012.3 |
| 20260506192603 | 60 | 0 | 0.0 | 0.0 | 0.00 | 1.13 | 1.13 | 85 | 1012.3 |
| 20260506192503 | 60 | 0 | 0.0 | 0.0 | 0.00 | 1.13 | 1.13 | 85 | 1012.3 |
| 20260506192403 | 60 | 0 | 0.0 | 0.0 | 0.00 | 1.13 | 1.13 | 85 | 1012.3 |
| 20260506192305 | 60 | 0 | 0.0 | 0.0 | 0.00 | 1.13 | 1.13 | 85 | 1012.3 |
| 20260506192203 | 60 | 0 | 0.0 | 0.0 | 0.00 | 1.13 | 1.13 | 84 | 1012.3 |
| 20260506192103 | 60 | 0 | 0.0 | 0.0 | 0.00 | 1.13 | 1.13 | 84 | 1012.3 |
| 20260506192003 | 60 | 0 | 0.0 | 0.0 | 0.00 | 1.13 | 1.13 | 85 | 1012.2 |
| 20260506191903 | 60 | 0 | 0.0 | 0.0 | 0.00 | 1.13 | 1.13 | 85 | 1012.2 |
| 20260506191806 | 60 | 0 | 0.0 | 0.0 | 0.00 | 1.13 | 1.13 | 85 | 1012.2 |
| 20260506191703 | 60 | 0 | 0.0 | 0.0 | 0.00 | 1.13 | 1.13 | 85 | 1012.2 |
| 20260506191603 | 60 | 0 | 0.0 | 0.0 | 0.00 | 1.13 | 1.13 | 85 | 1012.2 |
| 20260506191503 | 60 | 0 | 0.0 | 0.0 | 0.00 | 1.13 | 1.13 | 85 | 1012.2 |
| 20260506191403 | 60 | 0 | 0.0 | 0.0 | 0.00 | 1.13 | 1.13 | 85 | 1012.1 |
| 20260506191304 | 60 | 0 | 0.0 | 0.0 | 0.00 | 1.13 | 1.13 | 85 | 1012.1 |
| 20260506191203 | 60 | 0 | 0.0 | 0.0 | 0.00 | 1.13 | 1.13 | 85 | 1012.1 |
| 20260506191103 | 60 | 0 | 0.0 | 0.0 | 0.00 | 1.13 | 1.13 | 85 | 1012.1 |
| 20260506191003 | 60 | 0 | 0.0 | 0.0 | 0.00 | 1.13 | 1.13 | 85 | 1012.1 |
| 20260506190903 | 60 | 0 | 0.0 | 0.0 | 0.00 | 1.13 | 1.13 | 85 | 1012.1 |
| 20260506190803 | 60 | 0 | 0.0 | 0.0 | 0.00 | 1.13 | 1.13 | 84 | 1012.1 |
| 20260506190703 | 60 | 0 | 0.0 | 0.0 | 0.00 | 1.13 | 1.13 | 84 | 1012.0 |
| 20260506190603 | 60 | 0 | 0.0 | 0.0 | 0.00 | 1.13 | 1.13 | 84 | 1012.0 |
| 20260506190503 | 60 | 0 | 0.0 | 0.0 | 0.00 | 1.13 | 1.13 | 84 | 1012.0 |
| 20260506190403 | 60 | 0 | 0.0 | 0.0 | 0.00 | 1.13 | 1.13 | 84 | 1012.0 |
| 20260506190303 | 60 | 0 | 0.0 | 0.0 | 0.00 | 1.13 | 1.13 | 84 | 1012.0 |
| 20260506190203 | 60 | 0 | 0.0 | 0.0 | 0.00 | 1.13 | 1.13 | 84 | 1011.9 |
| 20260506190004 | 60 | 0 | 0.0 | 0.0 | 0.00 | 1.13 | 1.13 | 84 | 1011.9 |
| 20260506185903 | 60 | 0 | 0.0 | 0.0 | 0.00 | 1.13 | 1.13 | 84 | 1011.8 |
| 20260506185803 | 60 | 0 | 0.0 | 0.0 | 0.00 | 1.13 | 1.13 | 84 | 1011.8 |
| 20260506185703 | 60 | 0 | 0.0 | 0.0 | 0.00 | 1.13 | 1.13 | 84 | 1011.8 |
| 20260506185603 | 60 | 0 | 0.0 | 0.0 | 0.00 | 1.13 | 1.13 | 84 | 1011.8 |
| 20260506185503 | 60 | 0 | 0.0 | 0.0 | 0.00 | 1.13 | 1.13 | 83 | 1011.8 |
| 20260506185403 | 60 | 0 | 0.0 | 0.0 | 0.00 | 1.13 | 1.13 | 83 | 1011.8 |
| 20260506185306 | 60 | 0 | 0.0 | 0.0 | 0.00 | 1.13 | 1.13 | 82 | 1011.8 |
| 20260506185203 | 60 | 0 | 0.0 | 0.0 | 0.00 | 1.13 | 1.13 | 83 | 1011.8 |
| 20260506185103 | 60 | 0 | 0.0 | 0.0 | 0.00 | 1.13 | 1.13 | 83 | 1011.8 |
| 20260506185003 | 60 | 0 | 0.0 | 0.0 | 0.00 | 1.13 | 1.13 | 83 | 1011.7 |
| 20260506184903 | 60 | 0 | 0.0 | 0.0 | 0.00 | 1.13 | 1.13 | 83 | 1011.7 |
| 20260506184803 | 60 | 0 | 0.0 | 0.0 | 0.00 | 1.13 | 1.13 | 83 | 1011.7 |
| 20260506184703 | 60 | 0 | 0.0 | 0.0 | 0.00 | 1.13 | 1.13 | 83 | 1011.7 |
| 20260506184603 | 60 | 0 | 0.0 | 0.0 | 0.00 | 1.13 | 1.13 | 82 | 1011.6 |
| 20260506184503 | 60 | 0 | 0.0 | 0.0 | 0.00 | 1.13 | 1.13 | 82 | 1011.6 |
| 20260506184403 | 61 | 0 | 0.0 | 0.0 | 0.00 | 1.13 | 1.13 | 82 | 1011.6 |
| 20260506184303 | 61 | 0 | 0.0 | 0.0 | 0.00 | 1.13 | 1.13 | 82 | 1011.6 |
| 20260506184203 | 61 | 0 | 0.0 | 0.0 | 0.00 | 1.13 | 1.13 | 82 | 1011.6 |
| 20260506184103 | 61 | 0 | 0.0 | 0.0 | 0.00 | 1.13 | 1.13 | 81 | 1011.6 |
| 20260506184003 | 61 | 0 | 0.0 | 0.0 | 0.00 | 1.13 | 1.13 | 81 | 1011.6 |
| 20260506183903 | 61 | 0 | 0.0 | 0.0 | 0.00 | 1.13 | 1.13 | 81 | 1011.6 |
| 20260506183803 | 61 | 0 | 0.0 | 0.0 | 0.00 | 1.13 | 1.13 | 81 | 1011.6 |
| 20260506183704 | 61 | 0 | 0.0 | 0.0 | 0.00 | 1.13 | 1.13 | 81 | 1011.5 |
| 20260506183604 | 61 | 0 | 0.0 | 0.0 | 0.00 | 1.13 | 1.13 | 80 | 1011.5 |
| 20260506183503 | 62 | 0 | 0.0 | 0.0 | 0.00 | 1.13 | 1.13 | 80 | 1011.5 |
| 20260506183403 | 62 | 0 | 0.0 | 0.0 | 0.00 | 1.13 | 1.13 | 80 | 1011.5 |
| 20260506183303 | 62 | 0 | 0.0 | 0.0 | 0.00 | 1.13 | 1.13 | 79 | 1011.5 |
| 20260506183203 | 62 | 0 | 0.0 | 0.0 | 0.00 | 1.13 | 1.13 | 79 | 1011.5 |
| 20260506183103 | 62 | 0 | 0.0 | 0.0 | 0.00 | 1.13 | 1.13 | 79 | 1011.5 |
| 20260506183003 | 62 | 205 | 0.0 | 2.0 | 0.00 | 1.13 | 1.13 | 78 | 1011.5 |
| 20260506182903 | 62 | 204 | 0.0 | 2.0 | 0.00 | 1.13 | 1.13 | 78 | 1011.5 |
| 20260506182803 | 62 | 204 | 0.0 | 2.0 | 0.00 | 1.13 | 1.13 | 78 | 1011.4 |
| 20260506182703 | 62 | 204 | 1.0 | 3.0 | 0.00 | 1.13 | 1.13 | 78 | 1011.4 |
| 20260506182603 | 62 | 206 | 1.0 | 3.0 | 0.00 | 1.13 | 1.13 | 78 | 1011.4 |
| 20260506182503 | 62 | 206 | 1.0 | 3.0 | 0.00 | 1.13 | 1.13 | 78 | 1011.4 |
| 20260506182403 | 62 | 206 | 1.0 | 3.0 | 0.00 | 1.13 | 1.13 | 77 | 1011.4 |
| 20260506182306 | 62 | 206 | 1.0 | 3.0 | 0.00 | 1.13 | 1.13 | 76 | 1011.4 |
| 20260506182203 | 62 | 212 | 2.0 | 4.0 | 0.00 | 1.13 | 1.13 | 76 | 1011.4 |
| 20260506182103 | 62 | 217 | 2.0 | 6.0 | 0.00 | 1.13 | 1.13 | 76 | 1011.4 |
| 20260506182003 | 63 | 219 | 2.0 | 6.0 | 0.00 | 1.13 | 1.13 | 76 | 1011.4 |
| 20260506181903 | 63 | 221 | 2.0 | 6.0 | 0.00 | 1.13 | 1.13 | 76 | 1011.4 |
| 20260506181803 | 63 | 223 | 2.0 | 6.0 | 0.00 | 1.13 | 1.13 | 76 | 1011.4 |
| 20260506181703 | 63 | 224 | 2.0 | 6.0 | 0.00 | 1.13 | 1.13 | 76 | 1011.4 |
| 20260506181603 | 63 | 224 | 1.0 | 6.0 | 0.00 | 1.13 | 1.13 | 76 | 1011.4 |
| 20260506181503 | 63 | 223 | 1.0 | 6.0 | 0.00 | 1.13 | 1.13 | 76 | 1011.4 |
| 20260506181403 | 63 | 223 | 1.0 | 6.0 | 0.00 | 1.13 | 1.13 | 76 | 1011.4 |
| 20260506181303 | 63 | 223 | 1.0 | 6.0 | 0.00 | 1.13 | 1.13 | 76 | 1011.3 |
| 20260506181203 | 63 | 224 | 2.0 | 6.0 | 0.00 | 1.13 | 1.13 | 75 | 1011.3 |
| 20260506181103 | 63 | 224 | 2.0 | 5.0 | 0.00 | 1.13 | 1.13 | 75 | 1011.3 |
| 20260506181003 | 63 | 219 | 2.0 | 5.0 | 0.00 | 1.13 | 1.13 | 75 | 1011.3 |
| 20260506180903 | 63 | 212 | 2.0 | 5.0 | 0.00 | 1.13 | 1.13 | 75 | 1011.3 |
| 20260506180803 | 63 | 207 | 2.0 | 6.0 | 0.00 | 1.13 | 1.13 | 75 | 1011.2 |
| 20260506180703 | 63 | 207 | 3.0 | 6.0 | 0.00 | 1.13 | 1.13 | 75 | 1011.3 |
| 20260506180604 | 63 | 212 | 3.0 | 6.0 | 0.00 | 1.13 | 1.13 | 75 | 1011.3 |
| 20260506180503 | 63 | 218 | 3.0 | 8.0 | 0.00 | 1.13 | 1.13 | 75 | 1011.3 |
| 20260506180403 | 63 | 216 | 3.0 | 8.0 | 0.00 | 1.13 | 1.13 | 75 | 1011.2 |
| 20260506180303 | 63 | 218 | 3.0 | 10.0 | 0.00 | 1.13 | 1.13 | 75 | 1011.3 |
| 20260506180203 | 63 | 220 | 3.0 | 10.0 | 0.00 | 1.13 | 1.13 | 75 | 1011.3 |
| 20260506180004 | 63 | 223 | 3.0 | 10.0 | 0.00 | 1.13 | 1.13 | 75 | 1011.2 |
| 20260506175903 | 63 | 225 | 3.0 | 10.0 | 0.00 | 1.13 | 1.13 | 74 | 1011.2 |
| 20260506175803 | 63 | 224 | 4.0 | 10.0 | 0.00 | 1.13 | 1.13 | 74 | 1011.2 |
| 20260506175703 | 63 | 224 | 4.0 | 10.0 | 0.00 | 1.13 | 1.13 | 74 | 1011.2 |
| 20260506175603 | 63 | 223 | 4.0 | 10.0 | 0.00 | 1.13 | 1.13 | 74 | 1011.2 |
| 20260506175503 | 63 | 222 | 4.0 | 10.0 | 0.00 | 1.13 | 1.13 | 74 | 1011.2 |
| 20260506175403 | 63 | 224 | 4.0 | 10.0 | 0.00 | 1.13 | 1.13 | 75 | 1011.2 |
| 20260506175306 | 63 | 222 | 4.0 | 9.0 | 0.00 | 1.13 | 1.13 | 75 | 1011.2 |
| 20260506175203 | 63 | 220 | 5.0 | 9.0 | 0.00 | 1.13 | 1.13 | 74 | 1011.2 |
| 20260506175103 | 63 | 218 | 5.0 | 10.0 | 0.00 | 1.13 | 1.13 | 74 | 1011.1 |
| 20260506175003 | 63 | 218 | 5.0 | 10.0 | 0.00 | 1.13 | 1.13 | 75 | 1011.1 |
| 20260506174903 | 63 | 218 | 6.0 | 10.0 | 0.00 | 1.13 | 1.13 | 74 | 1011.2 |
| 20260506174803 | 63 | 218 | 6.0 | 10.0 | 0.00 | 1.13 | 1.13 | 75 | 1011.1 |
| 20260506174703 | 63 | 217 | 6.0 | 10.0 | 0.00 | 1.13 | 1.13 | 74 | 1011.1 |
| 20260506174603 | 63 | 218 | 6.0 | 10.0 | 0.00 | 1.13 | 1.13 | 74 | 1011.1 |
| 20260506174503 | 63 | 217 | 6.0 | 11.0 | 0.00 | 1.13 | 1.13 | 74 | 1011.1 |
| 20260506174403 | 63 | 216 | 6.0 | 13.0 | 0.00 | 1.13 | 1.13 | 73 | 1011.1 |
| 20260506174303 | 63 | 217 | 6.0 | 13.0 | 0.00 | 1.13 | 1.13 | 73 | 1011.1 |
| 20260506174203 | 63 | 217 | 6.0 | 13.0 | 0.00 | 1.13 | 1.13 | 73 | 1011.1 |
| 20260506174103 | 63 | 217 | 5.0 | 13.0 | 0.00 | 1.13 | 1.13 | 73 | 1011.1 |
| 20260506174003 | 63 | 218 | 5.0 | 13.0 | 0.00 | 1.13 | 1.13 | 73 | 1011.1 |
| 20260506173903 | 63 | 218 | 5.0 | 13.0 | 0.00 | 1.13 | 1.13 | 74 | 1011.1 |
| 20260506173803 | 63 | 218 | 5.0 | 13.0 | 0.00 | 1.13 | 1.13 | 74 | 1011.1 |
| 20260506173703 | 63 | 220 | 5.0 | 13.0 | 0.00 | 1.13 | 1.13 | 74 | 1011.1 |
| 20260506173603 | 63 | 219 | 5.0 | 13.0 | 0.00 | 1.13 | 1.13 | 74 | 1011.1 |
| 20260506173405 | 63 | 220 | 4.0 | 12.0 | 0.00 | 1.13 | 1.13 | 75 | 1011.1 |
| 20260506173303 | 63 | 221 | 4.0 | 12.0 | 0.00 | 1.13 | 1.13 | 75 | 1011.0 |
| 20260506173203 | 63 | 222 | 4.0 | 11.0 | 0.00 | 1.13 | 1.13 | 75 | 1011.0 |
| 20260506173103 | 63 | 221 | 4.0 | 11.0 | 0.00 | 1.13 | 1.13 | 75 | 1011.1 |
| 20260506173003 | 63 | 220 | 4.0 | 11.0 | 0.00 | 1.13 | 1.13 | 75 | 1011.0 |
| 20260506172903 | 63 | 217 | 4.0 | 11.0 | 0.00 | 1.13 | 1.13 | 75 | 1011.0 |
| 20260506172803 | 63 | 216 | 4.0 | 11.0 | 0.00 | 1.13 | 1.13 | 74 | 1011.0 |
| 20260506172703 | 64 | 215 | 4.0 | 11.0 | 0.00 | 1.13 | 1.13 | 75 | 1011.0 |
| 20260506172603 | 64 | 214 | 4.0 | 11.0 | 0.00 | 1.13 | 1.13 | 75 | 1011.0 |
| 20260506172503 | 64 | 212 | 4.0 | 10.0 | 0.00 | 1.13 | 1.13 | 76 | 1011.0 |
| 20260506172403 | 64 | 210 | 4.0 | 10.0 | 0.00 | 1.13 | 1.13 | 76 | 1011.0 |
| 20260506172306 | 64 | 207 | 4.0 | 8.0 | 0.00 | 1.13 | 1.13 | 77 | 1011.0 |
| 20260506172203 | 64 | 209 | 4.0 | 8.0 | 0.00 | 1.13 | 1.13 | 76 | 1011.0 |
| 20260506172103 | 64 | 210 | 4.0 | 8.0 | 0.00 | 1.13 | 1.13 | 76 | 1011.0 |
| 20260506172003 | 64 | 210 | 4.0 | 8.0 | 0.00 | 1.13 | 1.13 | 76 | 1011.0 |
| 20260506171903 | 64 | 211 | 4.0 | 8.0 | 0.00 | 1.13 | 1.13 | 76 | 1011.0 |
| 20260506171803 | 64 | 209 | 4.0 | 8.0 | 0.00 | 1.13 | 1.13 | 76 | 1010.9 |
| 20260506171703 | 64 | 207 | 4.0 | 8.0 | 0.00 | 1.13 | 1.13 | 76 | 1010.9 |
| 20260506171603 | 64 | 207 | 4.0 | 8.0 | 0.00 | 1.13 | 1.13 | 76 | 1010.9 |
| 20260506171503 | 64 | 207 | 4.0 | 8.0 | 0.00 | 1.13 | 1.13 | 76 | 1010.9 |
| 20260506171403 | 64 | 205 | 4.0 | 9.0 | 0.00 | 1.13 | 1.13 | 75 | 1010.9 |
| 20260506171304 | 64 | 205 | 4.0 | 9.0 | 0.00 | 1.13 | 1.13 | 76 | 1010.9 |
| 20260506171203 | 64 | 201 | 4.0 | 9.0 | 0.00 | 1.13 | 1.13 | 76 | 1010.9 |
| 20260506171103 | 64 | 201 | 3.0 | 9.0 | 0.00 | 1.13 | 1.13 | 75 | 1010.9 |
| 20260506171003 | 64 | 200 | 3.0 | 9.0 | 0.00 | 1.13 | 1.13 | 75 | 1010.9 |
| 20260506170903 | 64 | 201 | 3.0 | 9.0 | 0.00 | 1.13 | 1.13 | 75 | 1010.9 |
| 20260506170803 | 64 | 201 | 3.0 | 9.0 | 0.00 | 1.13 | 1.13 | 76 | 1011.0 |
| 20260506170703 | 64 | 202 | 2.0 | 9.0 | 0.00 | 1.13 | 1.13 | 76 | 1010.9 |
| 20260506170603 | 64 | 202 | 2.0 | 9.0 | 0.00 | 1.13 | 1.13 | 75 | 1011.0 |
| 20260506170504 | 64 | 201 | 2.0 | 9.0 | 0.00 | 1.13 | 1.13 | 75 | 1010.9 |
| 20260506170403 | 64 | 202 | 2.0 | 9.0 | 0.00 | 1.13 | 1.13 | 75 | 1011.0 |
| 20260506170303 | 64 | 203 | 2.0 | 9.0 | 0.00 | 1.13 | 1.13 | 75 | 1010.9 |
| 20260506170203 | 64 | 204 | 2.0 | 9.0 | 0.00 | 1.13 | 1.13 | 75 | 1010.9 |
| 20260506170103 | 64 | 204 | 2.0 | 9.0 | 0.00 | 1.13 | 1.13 | 75 | 1010.9 |
| 20260506170003 | 64 | 203 | 2.0 | 9.0 | 0.00 | 1.13 | 1.13 | 74 | 1010.9 |
| 20260506165908 | 64 | 202 | 2.0 | 9.0 | 0.00 | 1.13 | 1.13 | 74 | 1010.9 |
| 20260506165803 | 64 | 211 | 2.0 | 9.0 | 0.00 | 1.13 | 1.13 | 74 | 1010.9 |
| 20260506165703 | 64 | 213 | 3.0 | 9.0 | 0.00 | 1.13 | 1.13 | 74 | 1010.8 |
| 20260506165603 | 64 | 207 | 3.0 | 7.0 | 0.00 | 1.13 | 1.13 | 74 | 1010.9 |
| 20260506165503 | 64 | 210 | 3.0 | 7.0 | 0.00 | 1.13 | 1.13 | 74 | 1010.8 |
| 20260506165403 | 64 | 212 | 3.0 | 9.0 | 0.00 | 1.13 | 1.13 | 74 | 1010.8 |
| 20260506165305 | 64 | 210 | 4.0 | 9.0 | 0.00 | 1.13 | 1.13 | 74 | 1010.8 |
| 20260506165204 | 64 | 213 | 4.0 | 9.0 | 0.00 | 1.13 | 1.13 | 74 | 1010.8 |
| 20260506165103 | 64 | 214 | 4.0 | 9.0 | 0.00 | 1.13 | 1.13 | 75 | 1010.8 |
| 20260506165003 | 64 | 212 | 4.0 | 10.0 | 0.00 | 1.13 | 1.13 | 75 | 1010.8 |
| 20260506164903 | 64 | 210 | 5.0 | 10.0 | 0.00 | 1.13 | 1.13 | 75 | 1010.8 |
| 20260506164804 | 64 | 210 | 5.0 | 10.0 | 0.00 | 1.13 | 1.13 | 75 | 1010.9 |
| 20260506164703 | 64 | 213 | 5.0 | 10.0 | 0.00 | 1.13 | 1.13 | 74 | 1010.8 |
| 20260506164603 | 64 | 217 | 6.0 | 10.0 | 0.00 | 1.13 | 1.13 | 74 | 1010.8 |
| 20260506164503 | 64 | 217 | 6.0 | 10.0 | 0.00 | 1.13 | 1.13 | 74 | 1010.8 |
| 20260506164403 | 64 | 217 | 6.0 | 11.0 | 0.00 | 1.13 | 1.13 | 74 | 1010.8 |
| 20260506164303 | 64 | 217 | 6.0 | 13.0 | 0.00 | 1.13 | 1.13 | 75 | 1010.9 |
| 20260506164203 | 64 | 216 | 6.0 | 13.0 | 0.00 | 1.13 | 1.13 | 74 | 1010.8 |
| 20260506164103 | 64 | 215 | 6.0 | 13.0 | 0.00 | 1.13 | 1.13 | 75 | 1010.9 |
| 20260506164003 | 64 | 217 | 6.0 | 13.0 | 0.00 | 1.13 | 1.13 | 75 | 1010.9 |
| 20260506163903 | 64 | 217 | 6.0 | 13.0 | 0.00 | 1.13 | 1.13 | 75 | 1010.9 |
| 20260506163803 | 64 | 216 | 6.0 | 13.0 | 0.00 | 1.13 | 1.13 | 75 | 1010.9 |
| 20260506163703 | 64 | 215 | 6.0 | 13.0 | 0.00 | 1.13 | 1.13 | 75 | 1010.9 |
| 20260506163603 | 64 | 214 | 5.0 | 13.0 | 0.00 | 1.13 | 1.13 | 75 | 1010.9 |
| 20260506163503 | 64 | 212 | 5.0 | 13.0 | 0.00 | 1.13 | 1.13 | 75 | 1010.9 |
| 20260506163403 | 64 | 212 | 5.0 | 13.0 | 0.00 | 1.13 | 1.13 | 75 | 1010.9 |
| 20260506163303 | 64 | 211 | 5.0 | 12.0 | 0.00 | 1.13 | 1.13 | 75 | 1010.9 |
| 20260506163203 | 64 | 209 | 4.0 | 12.0 | 0.00 | 1.13 | 1.13 | 76 | 1010.9 |
| 20260506163103 | 64 | 208 | 4.0 | 12.0 | 0.00 | 1.13 | 1.13 | 76 | 1010.9 |
| 20260506163003 | 64 | 207 | 4.0 | 12.0 | 0.00 | 1.13 | 1.13 | 76 | 1010.9 |
| 20260506162903 | 64 | 205 | 4.0 | 12.0 | 0.00 | 1.13 | 1.13 | 76 | 1010.9 |
| 20260506162803 | 64 | 204 | 3.0 | 12.0 | 0.00 | 1.13 | 1.13 | 76 | 1010.9 |
| 20260506162703 | 64 | 203 | 3.0 | 12.0 | 0.00 | 1.13 | 1.13 | 76 | 1010.8 |
| 20260506162603 | 64 | 206 | 3.0 | 10.0 | 0.00 | 1.13 | 1.13 | 76 | 1010.9 |
| 20260506162503 | 64 | 207 | 3.0 | 10.0 | 0.00 | 1.13 | 1.13 | 76 | 1010.9 |
| 20260506162403 | 64 | 207 | 2.0 | 10.0 | 0.00 | 1.13 | 1.13 | 76 | 1010.9 |
| 20260506162306 | 64 | 209 | 2.0 | 10.0 | 0.00 | 1.13 | 1.13 | 76 | 1010.9 |
| 20260506162203 | 64 | 210 | 2.0 | 10.0 | 0.00 | 1.13 | 1.13 | 76 | 1010.9 |
| 20260506162104 | 64 | 211 | 2.0 | 10.0 | 0.00 | 1.13 | 1.13 | 76 | 1010.9 |
| 20260506162003 | 64 | 214 | 2.0 | 9.0 | 0.00 | 1.13 | 1.13 | 76 | 1010.9 |
| 20260506161903 | 64 | 214 | 2.0 | 9.0 | 0.00 | 1.13 | 1.13 | 76 | 1010.9 |
| 20260506161803 | 64 | 217 | 2.0 | 8.0 | 0.00 | 1.13 | 1.13 | 75 | 1010.9 |
| 20260506161703 | 65 | 220 | 3.0 | 9.0 | 0.00 | 1.13 | 1.13 | 75 | 1010.9 |
| 20260506161603 | 65 | 220 | 3.0 | 9.0 | 0.00 | 1.13 | 1.13 | 76 | 1010.9 |
| 20260506161503 | 65 | 218 | 3.0 | 9.0 | 0.00 | 1.13 | 1.13 | 76 | 1010.8 |
| 20260506161403 | 65 | 214 | 3.0 | 9.0 | 0.00 | 1.13 | 1.13 | 76 | 1010.8 |
| 20260506161303 | 65 | 212 | 3.0 | 9.0 | 0.00 | 1.13 | 1.13 | 76 | 1010.9 |
| 20260506161203 | 65 | 210 | 3.0 | 9.0 | 0.00 | 1.13 | 1.13 | 76 | 1010.9 |
| 20260506161103 | 65 | 213 | 3.0 | 9.0 | 0.00 | 1.13 | 1.13 | 76 | 1010.9 |
| 20260506161003 | 65 | 212 | 3.0 | 9.0 | 0.00 | 1.13 | 1.13 | 76 | 1010.9 |
| 20260506160903 | 65 | 213 | 3.0 | 9.0 | 0.00 | 1.13 | 1.13 | 75 | 1010.9 |
| 20260506160803 | 65 | 212 | 3.0 | 9.0 | 0.00 | 1.13 | 1.13 | 75 | 1010.8 |
| 20260506160703 | 65 | 208 | 3.0 | 9.0 | 0.00 | 1.13 | 1.13 | 75 | 1010.8 |
| 20260506160603 | 65 | 208 | 3.0 | 9.0 | 0.00 | 1.13 | 1.13 | 75 | 1010.8 |
| 20260506160503 | 65 | 208 | 3.0 | 9.0 | 0.00 | 1.13 | 1.13 | 75 | 1010.9 |
| 20260506160403 | 65 | 212 | 3.0 | 8.0 | 0.00 | 1.13 | 1.13 | 76 | 1010.9 |
| 20260506160303 | 65 | 212 | 3.0 | 8.0 | 0.00 | 1.13 | 1.13 | 77 | 1010.8 |
| 20260506160207 | 65 | 214 | 3.0 | 8.0 | 0.00 | 1.13 | 1.13 | 76 | 1010.9 |
| 20260506160103 | 65 | 213 | 3.0 | 8.0 | 0.00 | 1.13 | 1.13 | 77 | 1010.8 |
| 20260506160003 | 65 | 216 | 3.0 | 8.0 | 0.00 | 1.13 | 1.13 | 77 | 1010.8 |
| 20260506155903 | 65 | 217 | 3.0 | 8.0 | 0.00 | 1.13 | 1.13 | 77 | 1010.8 |
| 20260506155803 | 65 | 216 | 3.0 | 8.0 | 0.00 | 1.13 | 1.13 | 77 | 1010.9 |
| 20260506155703 | 65 | 211 | 3.0 | 9.0 | 0.00 | 1.13 | 1.13 | 77 | 1010.8 |
| 20260506155603 | 65 | 208 | 4.0 | 9.0 | 0.00 | 1.13 | 1.13 | 77 | 1010.8 |
| 20260506155503 | 65 | 208 | 4.0 | 9.0 | 0.00 | 1.13 | 1.13 | 76 | 1010.8 |
| 20260506155403 | 65 | 207 | 4.0 | 9.0 | 0.00 | 1.13 | 1.13 | 76 | 1010.9 |
| 20260506155306 | 65 | 211 | 4.0 | 10.0 | 0.00 | 1.13 | 1.13 | 76 | 1010.8 |
| 20260506155203 | 65 | 212 | 4.0 | 10.0 | 0.00 | 1.13 | 1.13 | 76 | 1010.8 |
| 20260506155103 | 65 | 212 | 4.0 | 10.0 | 0.00 | 1.13 | 1.13 | 76 | 1010.8 |
| 20260506155003 | 65 | 211 | 5.0 | 10.0 | 0.00 | 1.13 | 1.13 | 76 | 1010.8 |
| 20260506154903 | 65 | 212 | 5.0 | 11.0 | 0.00 | 1.13 | 1.13 | 76 | 1010.8 |
| 20260506154803 | 65 | 213 | 5.0 | 11.0 | 0.00 | 1.13 | 1.13 | 76 | 1010.8 |
| 20260506154703 | 65 | 216 | 5.0 | 11.0 | 0.00 | 1.13 | 1.13 | 76 | 1010.8 |
| 20260506154603 | 65 | 218 | 5.0 | 11.0 | 0.00 | 1.13 | 1.13 | 77 | 1010.8 |
| 20260506154504 | 65 | 220 | 5.0 | 12.0 | 0.00 | 1.13 | 1.13 | 77 | 1010.8 |
| 20260506154403 | 65 | 220 | 5.0 | 12.0 | 0.00 | 1.13 | 1.13 | 77 | 1010.8 |
| 20260506154303 | 65 | 221 | 5.0 | 12.0 | 0.00 | 1.13 | 1.13 | 78 | 1010.8 |
| 20260506154203 | 65 | 221 | 5.0 | 12.0 | 0.00 | 1.13 | 1.13 | 78 | 1010.8 |
| 20260506154103 | 65 | 220 | 5.0 | 12.0 | 0.00 | 1.13 | 1.13 | 78 | 1010.8 |
| 20260506154003 | 65 | 220 | 5.0 | 12.0 | 0.00 | 1.13 | 1.13 | 77 | 1010.8 |
| 20260506153904 | 65 | 220 | 5.0 | 12.0 | 0.00 | 1.13 | 1.13 | 77 | 1010.8 |
| 20260506153803 | 65 | 220 | 5.0 | 12.0 | 0.00 | 1.13 | 1.13 | 77 | 1010.9 |
| 20260506153703 | 65 | 221 | 5.0 | 12.0 | 0.00 | 1.13 | 1.13 | 77 | 1010.8 |
| 20260506153603 | 65 | 222 | 5.0 | 12.0 | 0.00 | 1.13 | 1.13 | 77 | 1010.8 |
| 20260506153503 | 65 | 221 | 5.0 | 12.0 | 0.00 | 1.13 | 1.13 | 78 | 1010.8 |
| 20260506153403 | 65 | 222 | 5.0 | 12.0 | 0.00 | 1.13 | 1.13 | 78 | 1010.8 |
| 20260506153303 | 65 | 222 | 5.0 | 12.0 | 0.00 | 1.13 | 1.13 | 78 | 1010.8 |
| 20260506153203 | 65 | 222 | 5.0 | 12.0 | 0.00 | 1.13 | 1.13 | 78 | 1010.8 |
| 20260506153103 | 65 | 222 | 5.0 | 12.0 | 0.00 | 1.13 | 1.13 | 78 | 1010.8 |
| 20260506153003 | 65 | 222 | 6.0 | 12.0 | 0.00 | 1.13 | 1.13 | 78 | 1010.8 |
| 20260506152903 | 65 | 223 | 6.0 | 12.0 | 0.00 | 1.13 | 1.13 | 78 | 1010.8 |
| 20260506152803 | 65 | 224 | 6.0 | 12.0 | 0.00 | 1.13 | 1.13 | 77 | 1010.8 |
| 20260506152703 | 65 | 222 | 6.0 | 12.0 | 0.00 | 1.13 | 1.13 | 78 | 1010.8 |
| 20260506152603 | 65 | 223 | 6.0 | 12.0 | 0.00 | 1.13 | 1.13 | 78 | 1010.8 |
| 20260506152503 | 65 | 223 | 6.0 | 12.0 | 0.00 | 1.13 | 1.13 | 78 | 1010.7 |
| 20260506152404 | 65 | 223 | 6.0 | 12.0 | 0.00 | 1.13 | 1.13 | 77 | 1010.7 |
| 20260506152305 | 65 | 221 | 6.0 | 12.0 | 0.00 | 1.13 | 1.13 | 76 | 1010.7 |
| 20260506152203 | 65 | 222 | 6.0 | 12.0 | 0.00 | 1.13 | 1.13 | 76 | 1010.7 |
| 20260506152103 | 66 | 223 | 6.0 | 12.0 | 0.00 | 1.13 | 1.13 | 76 | 1010.7 |
| 20260506152003 | 66 | 222 | 6.0 | 12.0 | 0.00 | 1.13 | 1.13 | 76 | 1010.7 |
| 20260506151903 | 66 | 222 | 6.0 | 12.0 | 0.00 | 1.13 | 1.13 | 76 | 1010.8 |
| 20260506151803 | 66 | 223 | 6.0 | 12.0 | 0.00 | 1.13 | 1.13 | 76 | 1010.7 |
| 20260506151703 | 66 | 223 | 6.0 | 11.0 | 0.00 | 1.13 | 1.13 | 76 | 1010.7 |
| 20260506151603 | 66 | 221 | 6.0 | 11.0 | 0.00 | 1.13 | 1.13 | 76 | 1010.7 |
| 20260506151503 | 66 | 221 | 6.0 | 11.0 | 0.00 | 1.13 | 1.13 | 76 | 1010.7 |
| 20260506151403 | 66 | 220 | 6.0 | 11.0 | 0.00 | 1.13 | 1.13 | 75 | 1010.7 |
| 20260506151303 | 66 | 221 | 6.0 | 11.0 | 0.00 | 1.13 | 1.13 | 75 | 1010.6 |
| 20260506151203 | 66 | 219 | 6.0 | 11.0 | 0.00 | 1.13 | 1.13 | 76 | 1010.7 |
| 20260506151103 | 66 | 219 | 6.0 | 11.0 | 0.00 | 1.13 | 1.13 | 76 | 1010.7 |
| 20260506151003 | 66 | 220 | 6.0 | 11.0 | 0.00 | 1.13 | 1.13 | 76 | 1010.7 |
| 20260506150903 | 66 | 219 | 6.0 | 11.0 | 0.00 | 1.13 | 1.13 | 76 | 1010.7 |
| 20260506150803 | 66 | 218 | 6.0 | 11.0 | 0.00 | 1.13 | 1.13 | 76 | 1010.6 |
| 20260506150703 | 66 | 217 | 6.0 | 11.0 | 0.00 | 1.13 | 1.13 | 76 | 1010.7 |
| 20260506150603 | 66 | 219 | 6.0 | 11.0 | 0.00 | 1.13 | 1.13 | 75 | 1010.7 |
| 20260506150503 | 66 | 219 | 5.0 | 10.0 | 0.00 | 1.13 | 1.13 | 76 | 1010.7 |
| 20260506150403 | 66 | 219 | 5.0 | 10.0 | 0.00 | 1.13 | 1.13 | 75 | 1010.7 |
| 20260506150304 | 66 | 219 | 5.0 | 11.0 | 0.00 | 1.13 | 1.13 | 75 | 1010.7 |
| 20260506150203 | 66 | 221 | 5.0 | 11.0 | 0.00 | 1.13 | 1.13 | 76 | 1010.7 |
| 20260506150103 | 66 | 221 | 5.0 | 11.0 | 0.00 | 1.13 | 1.13 | 76 | 1010.7 |
| 20260506150004 | 66 | 222 | 5.0 | 11.0 | 0.00 | 1.13 | 1.13 | 75 | 1010.7 |
| 20260506145903 | 66 | 222 | 5.0 | 11.0 | 0.00 | 1.13 | 1.13 | 75 | 1010.7 |
| 20260506145803 | 66 | 222 | 5.0 | 11.0 | 0.00 | 1.13 | 1.13 | 75 | 1010.6 |
| 20260506145703 | 66 | 222 | 5.0 | 11.0 | 0.00 | 1.13 | 1.13 | 76 | 1010.6 |
| 20260506145603 | 66 | 220 | 5.0 | 11.0 | 0.00 | 1.13 | 1.13 | 76 | 1010.7 |
| 20260506145503 | 66 | 220 | 5.0 | 11.0 | 0.00 | 1.13 | 1.13 | 76 | 1010.6 |
| 20260506145403 | 66 | 218 | 6.0 | 11.0 | 0.00 | 1.13 | 1.13 | 76 | 1010.7 |
| 20260506145305 | 66 | 218 | 6.0 | 10.0 | 0.00 | 1.13 | 1.13 | 76 | 1010.6 |
| 20260506145203 | 66 | 217 | 6.0 | 10.0 | 0.00 | 1.13 | 1.13 | 76 | 1010.7 |
| 20260506145103 | 66 | 216 | 6.0 | 10.0 | 0.00 | 1.13 | 1.13 | 75 | 1010.7 |
| 20260506145003 | 66 | 215 | 6.0 | 10.0 | 0.00 | 1.13 | 1.13 | 76 | 1010.7 |
| 20260506144903 | 66 | 215 | 6.0 | 10.0 | 0.00 | 1.13 | 1.13 | 75 | 1010.6 |
| 20260506144803 | 66 | 215 | 6.0 | 10.0 | 0.00 | 1.13 | 1.13 | 75 | 1010.7 |
| 20260506144703 | 66 | 214 | 6.0 | 10.0 | 0.00 | 1.13 | 1.13 | 75 | 1010.6 |
| 20260506144603 | 66 | 215 | 6.0 | 10.0 | 0.00 | 1.13 | 1.13 | 75 | 1010.6 |
| 20260506144504 | 66 | 213 | 6.0 | 10.0 | 0.00 | 1.13 | 1.13 | 74 | 1010.7 |
| 20260506144403 | 66 | 214 | 6.0 | 10.0 | 0.00 | 1.13 | 1.13 | 74 | 1010.7 |
| 20260506144303 | 66 | 213 | 6.0 | 10.0 | 0.00 | 1.13 | 1.13 | 75 | 1010.6 |
| 20260506144203 | 66 | 213 | 6.0 | 10.0 | 0.00 | 1.13 | 1.13 | 75 | 1010.6 |
| 20260506144103 | 66 | 213 | 6.0 | 10.0 | 0.00 | 1.13 | 1.13 | 74 | 1010.7 |
| 20260506144003 | 66 | 212 | 6.0 | 10.0 | 0.00 | 1.13 | 1.13 | 74 | 1010.6 |
| 20260506143903 | 67 | 211 | 6.0 | 10.0 | 0.00 | 1.13 | 1.13 | 75 | 1010.6 |
| 20260506143803 | 67 | 213 | 6.0 | 10.0 | 0.00 | 1.13 | 1.13 | 74 | 1010.6 |
| 20260506143703 | 67 | 214 | 6.0 | 10.0 | 0.00 | 1.13 | 1.13 | 74 | 1010.6 |
| 20260506143603 | 67 | 213 | 6.0 | 10.0 | 0.00 | 1.13 | 1.13 | 75 | 1010.6 |
| 20260506143503 | 67 | 214 | 6.0 | 10.0 | 0.00 | 1.13 | 1.13 | 74 | 1010.6 |
| 20260506143403 | 67 | 215 | 6.0 | 10.0 | 0.00 | 1.13 | 1.13 | 74 | 1010.6 |
| 20260506143303 | 67 | 215 | 6.0 | 9.0 | 0.00 | 1.13 | 1.13 | 74 | 1010.6 |
| 20260506143203 | 66 | 215 | 6.0 | 9.0 | 0.00 | 1.13 | 1.13 | 75 | 1010.6 |
| 20260506143103 | 66 | 215 | 6.0 | 9.0 | 0.00 | 1.13 | 1.13 | 75 | 1010.6 |
| 20260506143003 | 66 | 215 | 5.0 | 9.0 | 0.00 | 1.13 | 1.13 | 75 | 1010.6 |
| 20260506142903 | 67 | 214 | 5.0 | 9.0 | 0.00 | 1.13 | 1.13 | 75 | 1010.5 |
| 20260506142803 | 67 | 212 | 5.0 | 9.0 | 0.00 | 1.13 | 1.13 | 74 | 1010.6 |
| 20260506142703 | 67 | 212 | 5.0 | 9.0 | 0.00 | 1.13 | 1.13 | 74 | 1010.6 |
| 20260506142603 | 67 | 212 | 5.0 | 9.0 | 0.00 | 1.13 | 1.13 | 75 | 1010.6 |
| 20260506142503 | 67 | 211 | 4.0 | 9.0 | 0.00 | 1.13 | 1.13 | 75 | 1010.6 |
| 20260506142403 | 67 | 208 | 4.0 | 9.0 | 0.00 | 1.13 | 1.13 | 76 | 1010.6 |
| 20260506142306 | 67 | 208 | 4.0 | 9.0 | 0.00 | 1.13 | 1.13 | 76 | 1010.6 |
| 20260506142203 | 67 | 207 | 4.0 | 9.0 | 0.00 | 1.13 | 1.13 | 76 | 1010.6 |
| 20260506142103 | 67 | 204 | 4.0 | 9.0 | 0.00 | 1.13 | 1.13 | 75 | 1010.5 |
| 20260506142004 | 67 | 204 | 3.0 | 9.0 | 0.00 | 1.13 | 1.13 | 75 | 1010.5 |
| 20260506141903 | 67 | 204 | 3.0 | 9.0 | 0.00 | 1.13 | 1.13 | 75 | 1010.6 |
| 20260506141803 | 67 | 205 | 3.0 | 9.0 | 0.00 | 1.13 | 1.13 | 76 | 1010.5 |
| 20260506141703 | 67 | 202 | 3.0 | 9.0 | 0.00 | 1.13 | 1.13 | 75 | 1010.5 |
| 20260506141606 | 67 | 202 | 3.0 | 9.0 | 0.00 | 1.13 | 1.13 | 75 | 1010.5 |
| 20260506141503 | 67 | 204 | 3.0 | 9.0 | 0.00 | 1.13 | 1.13 | 75 | 1010.5 |
| 20260506141406 | 66 | 205 | 3.0 | 9.0 | 0.00 | 1.13 | 1.13 | 76 | 1010.5 |
| 20260506141303 | 66 | 205 | 3.0 | 8.0 | 0.00 | 1.13 | 1.13 | 76 | 1010.6 |
| 20260506141203 | 66 | 205 | 3.0 | 8.0 | 0.00 | 1.13 | 1.13 | 76 | 1010.6 |
| 20260506141103 | 67 | 212 | 3.0 | 8.0 | 0.00 | 1.13 | 1.13 | 76 | 1010.5 |
| 20260506141003 | 66 | 215 | 3.0 | 8.0 | 0.00 | 1.13 | 1.13 | 76 | 1010.5 |
| 20260506140903 | 66 | 215 | 4.0 | 8.0 | 0.00 | 1.13 | 1.13 | 76 | 1010.5 |
| 20260506140803 | 66 | 212 | 4.0 | 10.0 | 0.00 | 1.13 | 1.13 | 76 | 1010.6 |
| 20260506140703 | 66 | 215 | 4.0 | 10.0 | 0.00 | 1.13 | 1.13 | 77 | 1010.5 |
| 20260506140603 | 66 | 212 | 4.0 | 10.0 | 0.00 | 1.13 | 1.13 | 77 | 1010.5 |
| 20260506140503 | 66 | 206 | 4.0 | 10.0 | 0.00 | 1.13 | 1.13 | 77 | 1010.5 |
| 20260506140403 | 66 | 202 | 5.0 | 10.0 | 0.00 | 1.13 | 1.13 | 77 | 1010.6 |
| 20260506140303 | 66 | 201 | 5.0 | 10.0 | 0.00 | 1.13 | 1.13 | 77 | 1010.6 |
| 20260506140203 | 66 | 203 | 5.0 | 10.0 | 0.00 | 1.13 | 1.13 | 77 | 1010.6 |
| 20260506140003 | 66 | 203 | 5.0 | 10.0 | 0.00 | 1.13 | 1.13 | 77 | 1010.6 |
| 20260506135903 | 66 | 204 | 5.0 | 10.0 | 0.00 | 1.13 | 1.13 | 77 | 1010.6 |
| 20260506135803 | 66 | 206 | 5.0 | 10.0 | 0.00 | 1.13 | 1.13 | 78 | 1010.6 |
| 20260506135703 | 66 | 206 | 5.0 | 10.0 | 0.00 | 1.13 | 1.13 | 78 | 1010.6 |
| 20260506135603 | 66 | 208 | 5.0 | 10.0 | 0.00 | 1.13 | 1.13 | 78 | 1010.6 |
| 20260506135503 | 66 | 211 | 5.0 | 10.0 | 0.00 | 1.13 | 1.13 | 78 | 1010.6 |
| 20260506135403 | 66 | 213 | 5.0 | 10.0 | 0.00 | 1.13 | 1.13 | 78 | 1010.7 |
| 20260506135306 | 66 | 214 | 5.0 | 10.0 | 0.00 | 1.13 | 1.13 | 79 | 1010.6 |
| 20260506135203 | 66 | 215 | 5.0 | 10.0 | 0.00 | 1.13 | 1.13 | 79 | 1010.7 |
| 20260506135103 | 66 | 214 | 5.0 | 10.0 | 0.00 | 1.13 | 1.13 | 79 | 1010.6 |
| 20260506135003 | 66 | 212 | 5.0 | 10.0 | 0.00 | 1.13 | 1.13 | 78 | 1010.6 |
| 20260506134903 | 66 | 211 | 5.0 | 10.0 | 0.00 | 1.13 | 1.13 | 78 | 1010.7 |
| 20260506134803 | 66 | 209 | 5.0 | 10.0 | 0.00 | 1.13 | 1.13 | 78 | 1010.7 |
| 20260506134703 | 66 | 208 | 5.0 | 10.0 | 0.00 | 1.13 | 1.13 | 78 | 1010.7 |
| 20260506134603 | 66 | 205 | 5.0 | 10.0 | 0.00 | 1.13 | 1.13 | 77 | 1010.7 |
| 20260506134503 | 66 | 203 | 5.0 | 10.0 | 0.00 | 1.13 | 1.13 | 78 | 1010.7 |
| 20260506134403 | 66 | 205 | 4.0 | 10.0 | 0.00 | 1.13 | 1.13 | 78 | 1010.7 |
| 20260506134303 | 66 | 203 | 4.0 | 9.0 | 0.00 | 1.13 | 1.13 | 79 | 1010.7 |
| 20260506134203 | 66 | 202 | 4.0 | 9.0 | 0.00 | 1.13 | 1.13 | 79 | 1010.7 |
| 20260506134103 | 66 | 202 | 4.0 | 9.0 | 0.00 | 1.13 | 1.13 | 79 | 1010.7 |
| 20260506134004 | 66 | 202 | 4.0 | 9.0 | 0.00 | 1.13 | 1.13 | 79 | 1010.7 |
| 20260506133903 | 66 | 202 | 4.0 | 9.0 | 0.00 | 1.13 | 1.13 | 79 | 1010.7 |
| 20260506133803 | 66 | 202 | 4.0 | 9.0 | 0.00 | 1.13 | 1.13 | 79 | 1010.7 |
| 20260506133703 | 66 | 201 | 4.0 | 9.0 | 0.00 | 1.13 | 1.13 | 78 | 1010.7 |
| 20260506133603 | 66 | 202 | 4.0 | 9.0 | 0.00 | 1.13 | 1.13 | 78 | 1010.8 |
| 20260506133503 | 66 | 206 | 4.0 | 10.0 | 0.00 | 1.13 | 1.13 | 78 | 1010.7 |
| 20260506133403 | 66 | 206 | 4.0 | 10.0 | 0.00 | 1.13 | 1.13 | 77 | 1010.8 |
| 20260506133303 | 66 | 207 | 4.0 | 10.0 | 0.00 | 1.13 | 1.13 | 78 | 1010.8 |
| 20260506133203 | 67 | 210 | 4.0 | 10.0 | 0.00 | 1.13 | 1.13 | 77 | 1010.8 |
| 20260506133103 | 67 | 210 | 4.0 | 10.0 | 0.00 | 1.13 | 1.13 | 77 | 1010.8 |
| 20260506133003 | 67 | 210 | 4.0 | 10.0 | 0.00 | 1.13 | 1.13 | 77 | 1010.8 |
| 20260506132903 | 67 | 211 | 4.0 | 10.0 | 0.00 | 1.13 | 1.13 | 77 | 1010.8 |
| 20260506132803 | 67 | 212 | 4.0 | 10.0 | 0.00 | 1.13 | 1.13 | 77 | 1010.9 |
| 20260506132703 | 67 | 213 | 4.0 | 10.0 | 0.00 | 1.13 | 1.13 | 77 | 1010.8 |
| 20260506132603 | 67 | 213 | 4.0 | 10.0 | 0.00 | 1.13 | 1.13 | 77 | 1010.9 |
| 20260506132503 | 67 | 210 | 4.0 | 10.0 | 0.00 | 1.13 | 1.13 | 77 | 1010.9 |
| 20260506132403 | 67 | 211 | 4.0 | 10.0 | 0.00 | 1.13 | 1.13 | 77 | 1010.9 |
| 20260506132306 | 67 | 211 | 4.0 | 9.0 | 0.00 | 1.13 | 1.13 | 78 | 1010.9 |
| 20260506132203 | 67 | 212 | 4.0 | 10.0 | 0.00 | 1.13 | 1.13 | 78 | 1010.9 |
| 20260506132103 | 67 | 210 | 4.0 | 10.0 | 0.00 | 1.13 | 1.13 | 78 | 1010.9 |
| 20260506132003 | 67 | 209 | 4.0 | 10.0 | 0.00 | 1.13 | 1.13 | 78 | 1010.9 |
| 20260506131904 | 67 | 208 | 4.0 | 10.0 | 0.00 | 1.13 | 1.13 | 77 | 1010.9 |
| 20260506131803 | 67 | 207 | 4.0 | 10.0 | 0.00 | 1.13 | 1.13 | 78 | 1010.9 |
| 20260506131703 | 67 | 208 | 4.0 | 10.0 | 0.00 | 1.13 | 1.13 | 78 | 1010.9 |
| 20260506131603 | 67 | 210 | 4.0 | 10.0 | 0.00 | 1.13 | 1.13 | 78 | 1010.9 |
| 20260506131503 | 67 | 211 | 4.0 | 10.0 | 0.00 | 1.13 | 1.13 | 78 | 1010.9 |
| 20260506131403 | 67 | 211 | 4.0 | 10.0 | 0.00 | 1.13 | 1.13 | 77 | 1010.9 |
| 20260506131303 | 67 | 210 | 4.0 | 10.0 | 0.00 | 1.13 | 1.13 | 78 | 1010.9 |
| 20260506131203 | 66 | 209 | 4.0 | 9.0 | 0.00 | 1.13 | 1.13 | 78 | 1010.9 |
| 20260506131103 | 66 | 213 | 4.0 | 12.0 | 0.00 | 1.13 | 1.13 | 79 | 1010.9 |
| 20260506131003 | 66 | 216 | 5.0 | 12.0 | 0.00 | 1.13 | 1.13 | 78 | 1010.9 |
| 20260506130903 | 66 | 216 | 5.0 | 12.0 | 0.00 | 1.13 | 1.13 | 78 | 1010.9 |
| 20260506130803 | 66 | 219 | 5.0 | 12.0 | 0.00 | 1.13 | 1.13 | 78 | 1010.9 |
| 20260506130703 | 66 | 218 | 5.0 | 12.0 | 0.00 | 1.13 | 1.13 | 79 | 1010.9 |
| 20260506130603 | 66 | 216 | 5.0 | 12.0 | 0.00 | 1.13 | 1.13 | 79 | 1010.9 |
| 20260506130505 | 66 | 215 | 5.0 | 12.0 | 0.00 | 1.13 | 1.13 | 79 | 1010.9 |
| 20260506130403 | 66 | 217 | 5.0 | 12.0 | 0.00 | 1.13 | 1.13 | 79 | 1010.9 |
| 20260506130303 | 66 | 216 | 5.0 | 12.0 | 0.00 | 1.13 | 1.13 | 79 | 1010.9 |
| 20260506130203 | 66 | 213 | 5.0 | 12.0 | 0.00 | 1.13 | 1.13 | 79 | 1010.9 |
| 20260506130103 | 66 | 211 | 5.0 | 12.0 | 0.00 | 1.13 | 1.13 | 79 | 1010.9 |
| 20260506130003 | 66 | 211 | 5.0 | 12.0 | 0.00 | 1.13 | 1.13 | 79 | 1011.0 |
| 20260506125903 | 66 | 210 | 5.0 | 12.0 | 0.00 | 1.13 | 1.13 | 79 | 1010.9 |
| 20260506125803 | 66 | 206 | 5.0 | 12.0 | 0.00 | 1.13 | 1.13 | 79 | 1010.9 |
| 20260506125703 | 66 | 206 | 6.0 | 14.0 | 0.00 | 1.13 | 1.13 | 79 | 1011.0 |
| 20260506125603 | 66 | 209 | 6.0 | 14.0 | 0.00 | 1.13 | 1.13 | 79 | 1010.9 |
| 20260506125503 | 66 | 210 | 6.0 | 14.0 | 0.00 | 1.13 | 1.13 | 78 | 1010.9 |
| 20260506125403 | 66 | 209 | 6.0 | 14.0 | 0.00 | 1.13 | 1.13 | 78 | 1010.9 |
| 20260506125305 | 66 | 209 | 6.0 | 14.0 | 0.00 | 1.13 | 1.13 | 78 | 1010.9 |
| 20260506125203 | 66 | 212 | 6.0 | 14.0 | 0.00 | 1.13 | 1.13 | 78 | 1010.9 |
| 20260506125103 | 66 | 214 | 6.0 | 14.0 | 0.00 | 1.13 | 1.13 | 78 | 1010.9 |
| 20260506125003 | 66 | 214 | 5.0 | 14.0 | 0.00 | 1.13 | 1.13 | 78 | 1010.9 |
| 20260506124903 | 66 | 216 | 5.0 | 14.0 | 0.00 | 1.13 | 1.13 | 78 | 1011.0 |
| 20260506124803 | 66 | 219 | 5.0 | 14.0 | 0.00 | 1.13 | 1.13 | 78 | 1010.9 |
| 20260506124703 | 66 | 220 | 4.0 | 14.0 | 0.00 | 1.13 | 1.13 | 78 | 1010.9 |
| 20260506124603 | 66 | 221 | 4.0 | 12.0 | 0.00 | 1.13 | 1.13 | 78 | 1010.9 |
| 20260506124503 | 66 | 220 | 4.0 | 12.0 | 0.00 | 1.13 | 1.13 | 77 | 1010.9 |
| 20260506124403 | 66 | 219 | 3.0 | 12.0 | 0.00 | 1.13 | 1.13 | 76 | 1011.0 |
| 20260506124303 | 66 | 220 | 3.0 | 11.0 | 0.00 | 1.13 | 1.13 | 76 | 1011.0 |
| 20260506124203 | 66 | 220 | 3.0 | 11.0 | 0.00 | 1.13 | 1.13 | 77 | 1011.0 |
| 20260506124103 | 66 | 220 | 3.0 | 10.0 | 0.00 | 1.13 | 1.13 | 76 | 1011.0 |
| 20260506124003 | 66 | 219 | 3.0 | 10.0 | 0.00 | 1.13 | 1.13 | 75 | 1011.0 |
| 20260506123903 | 67 | 220 | 3.0 | 10.0 | 0.00 | 1.13 | 1.13 | 75 | 1010.9 |
| 20260506123803 | 67 | 218 | 3.0 | 10.0 | 0.00 | 1.13 | 1.13 | 75 | 1010.9 |
| 20260506123703 | 67 | 219 | 3.0 | 10.0 | 0.00 | 1.13 | 1.13 | 75 | 1010.9 |
| 20260506123603 | 67 | 216 | 3.0 | 10.0 | 0.00 | 1.13 | 1.13 | 75 | 1010.9 |
| 20260506123503 | 67 | 216 | 3.0 | 10.0 | 0.00 | 1.13 | 1.13 | 75 | 1010.9 |
| 20260506123403 | 67 | 216 | 3.0 | 10.0 | 0.00 | 1.13 | 1.13 | 75 | 1010.9 |
| 20260506123303 | 67 | 217 | 3.0 | 10.0 | 0.00 | 1.13 | 1.13 | 75 | 1010.9 |
| 20260506123203 | 67 | 216 | 4.0 | 10.0 | 0.00 | 1.13 | 1.13 | 74 | 1010.9 |
| 20260506123103 | 67 | 213 | 4.0 | 10.0 | 0.00 | 1.13 | 1.13 | 74 | 1010.9 |
| 20260506123003 | 67 | 213 | 4.0 | 10.0 | 0.00 | 1.13 | 1.13 | 74 | 1010.9 |
| 20260506122904 | 67 | 209 | 4.0 | 10.0 | 0.00 | 1.13 | 1.13 | 74 | 1010.9 |
| 20260506122803 | 67 | 207 | 4.0 | 10.0 | 0.00 | 1.13 | 1.13 | 73 | 1010.9 |
| 20260506122703 | 67 | 204 | 4.0 | 9.0 | 0.00 | 1.13 | 1.13 | 73 | 1010.9 |
| 20260506122603 | 67 | 205 | 4.0 | 9.0 | 0.00 | 1.13 | 1.13 | 72 | 1010.9 |
| 20260506122503 | 67 | 205 | 4.0 | 9.0 | 0.00 | 1.13 | 1.13 | 71 | 1011.0 |
| 20260506122403 | 67 | 205 | 4.0 | 9.0 | 0.00 | 1.13 | 1.13 | 71 | 1010.9 |
| 20260506122305 | 67 | 204 | 4.0 | 9.0 | 0.00 | 1.13 | 1.13 | 72 | 1010.9 |
| 20260506122203 | 67 | 206 | 5.0 | 9.0 | 0.00 | 1.13 | 1.13 | 71 | 1010.9 |
| 20260506122103 | 67 | 208 | 5.0 | 9.0 | 0.00 | 1.13 | 1.13 | 71 | 1011.0 |
| 20260506122003 | 67 | 209 | 5.0 | 10.0 | 0.00 | 1.13 | 1.13 | 71 | 1011.0 |
| 20260506121903 | 67 | 211 | 5.0 | 10.0 | 0.00 | 1.13 | 1.13 | 70 | 1010.9 |
| 20260506121803 | 67 | 214 | 5.0 | 10.0 | 0.00 | 1.13 | 1.13 | 72 | 1010.9 |
| 20260506121703 | 67 | 215 | 5.0 | 10.0 | 0.00 | 1.13 | 1.13 | 72 | 1010.9 |
| 20260506121603 | 67 | 214 | 5.0 | 13.0 | 0.00 | 1.13 | 1.13 | 72 | 1010.9 |
| 20260506121503 | 67 | 215 | 5.0 | 13.0 | 0.00 | 1.13 | 1.13 | 72 | 1010.9 |
| 20260506121403 | 67 | 214 | 5.0 | 13.0 | 0.00 | 1.13 | 1.13 | 71 | 1010.9 |
| 20260506121303 | 67 | 214 | 5.0 | 13.0 | 0.00 | 1.13 | 1.13 | 71 | 1010.9 |
| 20260506121203 | 67 | 213 | 5.0 | 13.0 | 0.00 | 1.13 | 1.13 | 72 | 1010.9 |
| 20260506121104 | 67 | 211 | 4.0 | 13.0 | 0.00 | 1.13 | 1.13 | 71 | 1010.9 |
| 20260506121003 | 66 | 209 | 4.0 | 13.0 | 0.00 | 1.13 | 1.13 | 72 | 1010.9 |
| 20260506120903 | 66 | 207 | 4.0 | 13.0 | 0.00 | 1.13 | 1.13 | 71 | 1010.8 |
| 20260506120803 | 66 | 205 | 4.0 | 13.0 | 0.00 | 1.13 | 1.13 | 72 | 1010.8 |
| 20260506120703 | 66 | 204 | 4.0 | 13.0 | 0.00 | 1.13 | 1.13 | 73 | 1010.9 |
| 20260506120603 | 66 | 203 | 4.0 | 11.0 | 0.00 | 1.13 | 1.13 | 74 | 1010.8 |
| 20260506120503 | 66 | 201 | 4.0 | 11.0 | 0.00 | 1.13 | 1.13 | 77 | 1010.9 |
| 20260506120404 | 66 | 202 | 4.0 | 11.0 | 0.00 | 1.13 | 1.13 | 77 | 1010.8 |
| 20260506120303 | 66 | 204 | 4.0 | 11.0 | 0.00 | 1.13 | 1.13 | 78 | 1010.8 |
| 20260506120203 | 66 | 202 | 4.0 | 11.0 | 0.00 | 1.13 | 1.13 | 77 | 1010.8 |
| 20260506120103 | 66 | 202 | 4.0 | 11.0 | 0.00 | 1.13 | 1.13 | 77 | 1010.8 |
| 20260506120003 | 66 | 204 | 4.0 | 11.0 | 0.00 | 1.13 | 1.13 | 77 | 1010.8 |
| 20260506115903 | 66 | 206 | 4.0 | 9.0 | 0.00 | 1.13 | 1.13 | 78 | 1010.8 |
| 20260506115803 | 66 | 206 | 4.0 | 9.0 | 0.00 | 1.13 | 1.13 | 79 | 1010.8 |
| 20260506115703 | 66 | 207 | 3.0 | 9.0 | 0.00 | 1.13 | 1.13 | 79 | 1010.8 |
| 20260506115603 | 66 | 209 | 4.0 | 11.0 | 0.00 | 1.13 | 1.13 | 79 | 1010.8 |
| 20260506115503 | 66 | 211 | 4.0 | 11.0 | 0.00 | 1.13 | 1.13 | 78 | 1010.8 |
| 20260506115403 | 66 | 212 | 4.0 | 11.0 | 0.00 | 1.13 | 1.13 | 79 | 1010.8 |
| 20260506115306 | 66 | 211 | 4.0 | 11.0 | 0.00 | 1.13 | 1.13 | 79 | 1010.7 |
| 20260506115203 | 66 | 212 | 4.0 | 11.0 | 0.00 | 1.13 | 1.13 | 79 | 1010.8 |
| 20260506115103 | 66 | 212 | 5.0 | 11.0 | 0.00 | 1.13 | 1.13 | 79 | 1010.8 |
| 20260506115003 | 66 | 210 | 5.0 | 11.0 | 0.00 | 1.13 | 1.13 | 79 | 1010.8 |
| 20260506114903 | 66 | 209 | 5.0 | 13.0 | 0.00 | 1.13 | 1.13 | 80 | 1010.7 |
| 20260506114803 | 66 | 210 | 6.0 | 13.0 | 0.00 | 1.13 | 1.13 | 80 | 1010.7 |
| 20260506114703 | 66 | 210 | 6.0 | 13.0 | 0.00 | 1.13 | 1.13 | 79 | 1010.8 |
| 20260506114603 | 66 | 211 | 6.0 | 13.0 | 0.00 | 1.13 | 1.13 | 79 | 1010.7 |
| 20260506114503 | 66 | 211 | 6.0 | 13.0 | 0.00 | 1.13 | 1.13 | 79 | 1010.7 |
| 20260506114403 | 66 | 211 | 6.0 | 13.0 | 0.00 | 1.13 | 1.13 | 79 | 1010.8 |
| 20260506114303 | 66 | 211 | 6.0 | 13.0 | 0.00 | 1.13 | 1.13 | 79 | 1010.7 |
| 20260506114203 | 66 | 211 | 6.0 | 13.0 | 0.00 | 1.13 | 1.13 | 79 | 1010.7 |
| 20260506114103 | 66 | 213 | 5.0 | 13.0 | 0.00 | 1.13 | 1.13 | 79 | 1010.8 |
| 20260506113904 | 66 | 217 | 5.0 | 11.0 | 0.00 | 1.13 | 1.13 | 80 | 1010.8 |
| 20260506113803 | 66 | 218 | 5.0 | 11.0 | 0.00 | 1.13 | 1.13 | 79 | 1010.8 |
| 20260506113703 | 66 | 217 | 5.0 | 11.0 | 0.00 | 1.13 | 1.13 | 79 | 1010.8 |
| 20260506113603 | 66 | 216 | 5.0 | 11.0 | 0.00 | 1.13 | 1.13 | 79 | 1010.8 |
| 20260506113503 | 66 | 215 | 5.0 | 11.0 | 0.00 | 1.13 | 1.13 | 79 | 1010.8 |
| 20260506113403 | 66 | 215 | 5.0 | 11.0 | 0.00 | 1.13 | 1.13 | 79 | 1010.8 |
| 20260506113303 | 66 | 216 | 5.0 | 11.0 | 0.00 | 1.13 | 1.13 | 79 | 1010.8 |
| 20260506113203 | 66 | 217 | 4.0 | 11.0 | 0.00 | 1.13 | 1.13 | 79 | 1010.7 |
| 20260506113103 | 66 | 215 | 4.0 | 11.0 | 0.00 | 1.13 | 1.13 | 80 | 1010.8 |
| 20260506113003 | 66 | 214 | 5.0 | 11.0 | 0.00 | 1.13 | 1.13 | 79 | 1010.8 |
| 20260506112903 | 66 | 213 | 5.0 | 11.0 | 0.00 | 1.13 | 1.13 | 80 | 1010.7 |
| 20260506112803 | 66 | 213 | 5.0 | 11.0 | 0.00 | 1.13 | 1.13 | 80 | 1010.8 |
| 20260506112703 | 66 | 214 | 5.0 | 12.0 | 0.00 | 1.13 | 1.13 | 80 | 1010.8 |
| 20260506112603 | 66 | 214 | 5.0 | 12.0 | 0.00 | 1.13 | 1.13 | 80 | 1010.8 |
| 20260506112503 | 65 | 213 | 5.0 | 12.0 | 0.00 | 1.13 | 1.13 | 80 | 1010.8 |
| 20260506112403 | 65 | 213 | 5.0 | 12.0 | 0.00 | 1.13 | 1.13 | 80 | 1010.8 |
| 20260506112305 | 65 | 211 | 6.0 | 12.0 | 0.00 | 1.13 | 1.13 | 80 | 1010.8 |
| 20260506112203 | 65 | 209 | 6.0 | 12.0 | 0.00 | 1.13 | 1.13 | 80 | 1010.8 |
| 20260506112103 | 65 | 211 | 6.0 | 12.0 | 0.00 | 1.13 | 1.13 | 80 | 1010.8 |
| 20260506112004 | 65 | 212 | 7.0 | 12.0 | 0.00 | 1.13 | 1.13 | 80 | 1010.7 |
| 20260506111903 | 65 | 210 | 7.0 | 12.0 | 0.00 | 1.13 | 1.13 | 80 | 1010.7 |
| 20260506111803 | 65 | 208 | 7.0 | 12.0 | 0.00 | 1.13 | 1.13 | 80 | 1010.8 |
| 20260506111703 | 65 | 207 | 7.0 | 12.0 | 0.00 | 1.13 | 1.13 | 81 | 1010.8 |
| 20260506111603 | 65 | 208 | 7.0 | 13.0 | 0.00 | 1.13 | 1.13 | 81 | 1010.8 |
| 20260506111503 | 65 | 209 | 7.0 | 13.0 | 0.00 | 1.13 | 1.13 | 81 | 1010.7 |
| 20260506111303 | 65 | 211 | 7.0 | 13.0 | 0.00 | 1.13 | 1.13 | 82 | 1010.7 |
| 20260506111203 | 65 | 211 | 7.0 | 14.0 | 0.00 | 1.13 | 1.13 | 82 | 1010.7 |
| 20260506111103 | 65 | 210 | 7.0 | 14.0 | 0.00 | 1.13 | 1.13 | 81 | 1010.7 |
| 20260506111003 | 65 | 207 | 7.0 | 14.0 | 0.00 | 1.13 | 1.13 | 81 | 1010.8 |
| 20260506110903 | 65 | 207 | 7.0 | 14.0 | 0.00 | 1.13 | 1.13 | 81 | 1010.8 |
| 20260506110803 | 65 | 207 | 8.0 | 14.0 | 0.00 | 1.13 | 1.13 | 80 | 1010.7 |
| 20260506110703 | 65 | 207 | 8.0 | 14.0 | 0.00 | 1.13 | 1.13 | 81 | 1010.8 |
| 20260506110603 | 65 | 203 | 8.0 | 14.0 | 0.00 | 1.13 | 1.13 | 81 | 1010.8 |
| 20260506110503 | 65 | 199 | 8.0 | 15.0 | 0.00 | 1.13 | 1.13 | 81 | 1010.7 |
| 20260506110403 | 65 | 195 | 8.0 | 15.0 | 0.00 | 1.13 | 1.13 | 81 | 1010.7 |
| 20260506110303 | 65 | 195 | 8.0 | 15.0 | 0.00 | 1.13 | 1.13 | 81 | 1010.7 |
| 20260506110203 | 65 | 193 | 8.0 | 15.0 | 0.00 | 1.13 | 1.13 | 81 | 1010.7 |
| 20260506110104 | 65 | 194 | 8.0 | 17.0 | 0.00 | 1.13 | 1.13 | 81 | 1010.7 |
| 20260506110003 | 65 | 196 | 8.0 | 17.0 | 0.00 | 1.13 | 1.13 | 83 | 1010.6 |
| 20260506105903 | 65 | 197 | 8.0 | 17.0 | 0.00 | 1.13 | 1.13 | 84 | 1010.6 |
| 20260506105803 | 65 | 199 | 8.0 | 17.0 | 0.00 | 1.13 | 1.13 | 83 | 1010.6 |
| 20260506105703 | 65 | 202 | 8.0 | 17.0 | 0.00 | 1.13 | 1.13 | 83 | 1010.6 |